THA828 WMKP-UNNT

Flight info

Callsign THA828
Flight time N/A
Altitude 34000
Route LUNTU1A VAS A457 HTY A464 GUTSO/N0490F360 A464 BKK/N0493F350 B346 LPB B218 SAGAG/K0904S1100 A581 BIDRU L888 NIVUX/K0889S1130 L888 SANLI/K0893S1100 L888 LUVAR Y2 MEPEP Y1 AKAGI/K0878S1160 Y1 DUMIN W192 AKLAS G470 QTV/K0883S1130 W190 ADPET/K0883S1160 B206 GOPTO/K0883F390 B206 LANBI/K0883F380 A814 ARNUL B206 KUDEB B228 RILTO
Aircraft A346/H-SDE2E3FGHIJ3J4J5M1RWXY/LB1D1

Departure

Time 2026-04-24 20:20
Airport Penang International Airport (WMKP)

Arrival

Time N/A
Airport Novosibirsk Tolmachevo Airport (UNNT)
Time Latitude Longitude Altitude Speed Heading
2026-04-24 20:18 5.28634 100.26666 28 ft 12 kts 92°
2026-04-24 20:19 5.28716 100.26775 28 ft 43 kts 42°
2026-04-24 20:19 5.29106 100.27132 33 ft 106 kts 42°
2026-04-24 20:19 5.29799 100.27759 32 ft 158 kts 42°
2026-04-24 20:19 5.30698 100.28576 239 ft 180 kts 43°
2026-04-24 20:20 5.31637 100.29414 641 ft 185 kts 42°
2026-04-24 20:20 5.32620 100.30276 1151 ft 188 kts 41°
2026-04-24 20:20 5.33604 100.31142 1680 ft 190 kts 42°
2026-04-24 20:20 5.34611 100.32033 2048 ft 202 kts 42°
2026-04-24 20:21 5.35705 100.33004 2357 ft 218 kts 42°
2026-04-24 20:21 5.36897 100.34064 2649 ft 237 kts 41°
2026-04-24 20:21 5.38264 100.35136 2939 ft 254 kts 24°
2026-04-24 20:21 5.40155 100.35388 3367 ft 263 kts 350°
2026-04-24 20:22 5.41976 100.35075 4042 ft 265 kts 351°
2026-04-24 20:22 5.43194 100.34901 4489 ft 266 kts 352°
2026-04-24 20:22 5.43911 100.34810 4751 ft 267 kts 353°
2026-04-24 20:22 5.45751 100.34595 5405 ft 270 kts 353°
2026-04-24 20:23 5.47636 100.34392 6074 ft 273 kts 354°
2026-04-24 20:23 5.49549 100.34194 6748 ft 275 kts 354°
2026-04-24 20:23 5.51448 100.34002 7377 ft 278 kts 354°
2026-04-24 20:23 5.53421 100.33802 7945 ft 281 kts 354°
2026-04-24 20:24 5.55400 100.33603 8478 ft 285 kts 355°
2026-04-24 20:24 5.57388 100.33405 8992 ft 289 kts 355°
2026-04-24 20:24 5.59422 100.33202 9521 ft 293 kts 356°
2026-04-24 20:24 5.61505 100.32998 10076 ft 296 kts 356°
2026-04-24 20:25 5.63633 100.32789 10399 ft 309 kts 356°
2026-04-24 20:25 5.65864 100.32568 10654 ft 324 kts 356°
2026-04-24 20:25 5.68220 100.32398 10907 ft 338 kts
2026-04-24 20:25 5.70666 100.32460 11153 ft 351 kts
2026-04-24 20:26 5.73136 100.32763 11384 ft 364 kts
2026-04-24 20:26 5.75714 100.33151 11617 ft 377 kts 10°
2026-04-24 20:26 5.78389 100.33566 11949 ft 387 kts 10°
2026-04-24 20:26 5.81090 100.33982 12479 ft 390 kts 10°
2026-04-24 20:27 5.83777 100.34395 13044 ft 393 kts 10°
2026-04-24 20:27 5.86605 100.34827 13602 ft 395 kts 10°
2026-04-24 20:27 5.89355 100.35246 14087 ft 399 kts 11°
2026-04-24 20:27 5.92912 100.35787 14698 ft 404 kts 11°
2026-04-24 20:28 5.96018 100.36261 15196 ft 408 kts 11°
2026-04-24 20:28 5.98832 100.36689 15636 ft 412 kts 11°
2026-04-24 20:28 6.01696 100.37125 16076 ft 416 kts 11°
2026-04-24 20:28 6.04599 100.37569 16510 ft 420 kts 11°
2026-04-24 20:29 6.07473 100.38007 16934 ft 423 kts 11°
2026-04-24 20:29 6.10399 100.38453 17372 ft 426 kts 11°
2026-04-24 20:29 6.13355 100.38902 17804 ft 429 kts 11°
2026-04-24 20:29 6.16338 100.39340 18225 ft 432 kts
2026-04-24 20:30 6.19355 100.39636 18646 ft 435 kts
2026-04-24 20:30 6.22365 100.39759 19051 ft 438 kts
2026-04-24 20:30 6.25449 100.39808 19468 ft 440 kts
2026-04-24 20:30 6.28503 100.39845 19859 ft 442 kts
2026-04-24 20:31 6.31601 100.39882 20233 ft 444 kts
2026-04-24 20:31 6.34690 100.39920 20612 ft 446 kts
2026-04-24 20:31 6.37819 100.39961 20982 ft 449 kts
2026-04-24 20:31 6.40986 100.40005 21347 ft 451 kts
2026-04-24 20:32 6.44111 100.40049 21697 ft 453 kts
2026-04-24 20:32 6.47307 100.40094 22049 ft 454 kts
2026-04-24 20:32 6.50453 100.40138 22401 ft 456 kts
2026-04-24 20:32 6.53653 100.40162 22735 ft 459 kts
2026-04-24 20:33 6.56888 100.40073 23053 ft 462 kts 359°
2026-04-24 20:33 6.60094 100.39962 23373 ft 464 kts 359°
2026-04-24 20:33 6.63363 100.39844 23696 ft 467 kts 359°
2026-04-24 20:33 6.66628 100.39727 24022 ft 469 kts 359°
2026-04-24 20:34 6.69882 100.39612 24356 ft 471 kts 359°
2026-04-24 20:34 6.73198 100.39495 24690 ft 473 kts 359°
2026-04-24 20:34 6.76490 100.39380 25014 ft 475 kts 359°
2026-04-24 20:34 6.79789 100.39266 25320 ft 477 kts 359°
2026-04-24 20:35 6.83132 100.39152 25617 ft 480 kts 359°
2026-04-24 20:35 6.86477 100.39037 25912 ft 482 kts 358°
2026-04-24 20:35 6.89881 100.38920 26216 ft 484 kts 358°
2026-04-24 20:35 6.93258 100.38845 26493 ft 487 kts
2026-04-24 20:36 6.96638 100.38924 26772 ft 489 kts
2026-04-24 20:36 7.00067 100.39066 27072 ft 491 kts
2026-04-24 20:36 7.03521 100.39220 27362 ft 493 kts
2026-04-24 20:36 7.06984 100.39375 27633 ft 495 kts
2026-04-24 20:37 7.10412 100.39529 27905 ft 497 kts
2026-04-24 20:37 7.13890 100.39684 28179 ft 499 kts
2026-04-24 20:37 7.17380 100.39839 28520 ft 499 kts
2026-04-24 20:37 7.20861 100.39995 28966 ft 497 kts
2026-04-24 20:38 7.24281 100.40147 29405 ft 495 kts
2026-04-24 20:38 7.27759 100.40302 29833 ft 494 kts
2026-04-24 20:38 7.31154 100.40453 30240 ft 492 kts
2026-04-24 20:38 7.34600 100.40608 30670 ft 491 kts
2026-04-24 20:39 7.37989 100.40759 31117 ft 488 kts
2026-04-24 20:39 7.41372 100.40910 31551 ft 486 kts
2026-04-24 20:39 7.44775 100.41062 31986 ft 484 kts
2026-04-24 20:39 7.48109 100.41210 32353 ft 483 kts
2026-04-24 20:40 7.51482 100.41360 32622 ft 485 kts
2026-04-24 20:40 7.54908 100.41509 32903 ft 486 kts
2026-04-24 20:40 7.58295 100.41655 33211 ft 487 kts
2026-04-24 20:40 7.61726 100.41804 33536 ft 487 kts
2026-04-24 20:41 7.65109 100.41952 33819 ft 488 kts
2026-04-24 20:41 7.68509 100.42103 33846 ft 487 kts
2026-04-24 20:41 7.75279 100.42403 33848 ft 487 kts
2026-04-24 20:42 7.82053 100.42704 33845 ft 487 kts
2026-04-24 20:42 7.88854 100.43008 33844 ft 488 kts
2026-04-24 20:43 7.95631 100.43312 33845 ft 488 kts
2026-04-24 20:43 8.02448 100.43619 33843 ft 489 kts
2026-04-24 20:44 8.09288 100.43916 33841 ft 489 kts
2026-04-24 20:44 8.16105 100.44138 33839 ft 488 kts
2026-04-24 20:45 8.22892 100.44353 33835 ft 486 kts
2026-04-24 20:45 8.29665 100.44576 33832 ft 486 kts
2026-04-24 20:46 8.36448 100.44803 33832 ft 486 kts
2026-04-24 20:46 8.43201 100.45030 33831 ft 486 kts
2026-04-24 20:47 8.50000 100.45258 33831 ft 486 kts
2026-04-24 20:47 8.56743 100.45484 33831 ft 486 kts
2026-04-24 20:48 8.63532 100.45712 33831 ft 485 kts
2026-04-24 20:48 8.70282 100.45940 33831 ft 485 kts
2026-04-24 20:49 8.77036 100.46172 33831 ft 485 kts
2026-04-24 20:49 8.83801 100.46400 33831 ft 485 kts
2026-04-24 20:50 8.90544 100.46625 33831 ft 484 kts
2026-04-24 20:50 8.97328 100.46857 33831 ft 485 kts
2026-04-24 20:51 9.04082 100.47086 33830 ft 485 kts
2026-04-24 20:51 9.10849 100.47311 33837 ft 485 kts
2026-04-24 20:52 9.17618 100.47539 33847 ft 485 kts
2026-04-24 20:52 9.24339 100.47767 33853 ft 485 kts
2026-04-24 20:53 9.31130 100.47999 33852 ft 485 kts
2026-04-24 20:53 9.37857 100.48229 33853 ft 485 kts
2026-04-24 20:54 9.44619 100.48460 33852 ft 484 kts
2026-04-24 20:54 9.51374 100.48692 33853 ft 484 kts
2026-04-24 20:55 9.58137 100.48925 33855 ft 484 kts
2026-04-24 20:55 9.64900 100.49159 33850 ft 484 kts
2026-04-24 20:56 9.71608 100.49391 33847 ft 483 kts
2026-04-24 20:56 9.78342 100.49657 33845 ft 483 kts
2026-04-24 20:57 9.85092 100.49934 33841 ft 483 kts
2026-04-24 20:57 9.91837 100.50211 33842 ft 483 kts
2026-04-24 20:58 9.98575 100.50489 33837 ft 483 kts
2026-04-24 20:58 10.05308 100.50764 33833 ft 483 kts
2026-04-24 20:59 10.12048 100.51040 33832 ft 484 kts
2026-04-24 20:59 10.18787 100.51316 33832 ft 483 kts
2026-04-24 21:00 10.25520 100.51595 33832 ft 483 kts
2026-04-24 21:00 10.32233 100.51872 33832 ft 484 kts
2026-04-24 21:01 10.38979 100.52145 33832 ft 485 kts
2026-04-24 21:01 10.45732 100.52419 33831 ft 484 kts
2026-04-24 21:02 10.52474 100.52697 33832 ft 485 kts
2026-04-24 21:02 10.59238 100.52976 33836 ft 485 kts
2026-04-24 21:03 10.66042 100.53258 33847 ft 486 kts
2026-04-24 21:03 10.72822 100.53539 33852 ft 487 kts
2026-04-24 21:04 10.79601 100.53820 33853 ft 487 kts
2026-04-24 21:04 10.86385 100.54102 33852 ft 487 kts
2026-04-24 21:05 10.93174 100.54385 33853 ft 487 kts
2026-04-24 21:05 10.99976 100.54668 33852 ft 488 kts
2026-04-24 21:06 11.06761 100.54912 33850 ft 488 kts
2026-04-24 21:06 11.13555 100.55139 33849 ft 487 kts
2026-04-24 21:07 11.20349 100.55372 33850 ft 487 kts
2026-04-24 21:07 11.27131 100.55608 33843 ft 486 kts
2026-04-24 21:08 11.33906 100.55845 33834 ft 486 kts
2026-04-24 21:08 11.40680 100.56082 33830 ft 486 kts
2026-04-24 21:09 11.47488 100.56322 33828 ft 487 kts
2026-04-24 21:09 11.54268 100.56559 33830 ft 487 kts
2026-04-24 21:10 11.61064 100.56798 33828 ft 488 kts
2026-04-24 21:10 11.67884 100.57036 33829 ft 488 kts
2026-04-24 21:11 11.74682 100.57275 33827 ft 487 kts
2026-04-24 21:11 11.81454 100.57515 33829 ft 487 kts
2026-04-24 21:12 11.88242 100.57756 33828 ft 487 kts
2026-04-24 21:12 11.95054 100.57998 33829 ft 488 kts
2026-04-24 21:13 12.01821 100.58220 33830 ft 488 kts
2026-04-24 21:13 12.08621 100.58235 33832 ft 488 kts
2026-04-24 21:14 12.15472 100.58206 33833 ft 487 kts
2026-04-24 21:14 12.22238 100.58194 33834 ft 486 kts
2026-04-24 21:15 12.28998 100.58192 33834 ft 486 kts
2026-04-24 21:15 12.35783 100.58192 33837 ft 486 kts
2026-04-24 21:16 12.42552 100.58192 33837 ft 486 kts 360°
2026-04-24 21:16 12.49332 100.58191 33838 ft 485 kts 360°
2026-04-24 21:17 12.56147 100.58190 33839 ft 485 kts 359°
2026-04-24 21:17 12.62905 100.58188 33840 ft 486 kts 359°
2026-04-24 21:18 12.69704 100.58189 33844 ft 486 kts 359°
2026-04-24 21:18 12.76468 100.58186 33845 ft 487 kts 359°
2026-04-24 21:19 12.83268 100.58189 33845 ft 488 kts 359°
2026-04-24 21:19 12.90090 100.58188 33846 ft 490 kts 359°
2026-04-24 21:20 13.00365 100.58189 33851 ft 490 kts 359°
2026-04-24 21:21 13.07180 100.58189 33852 ft 489 kts 359°
2026-04-24 21:21 13.13999 100.58191 33855 ft 488 kts 359°
2026-04-24 21:22 13.20801 100.58189 33852 ft 488 kts 359°
2026-04-24 21:22 13.27597 100.58189 33853 ft 488 kts 359°
2026-04-24 21:23 13.34434 100.58182 33854 ft 489 kts 359°
2026-04-24 21:23 13.41253 100.58295 33854 ft 489 kts
2026-04-24 21:24 13.48040 100.58497 33855 ft 488 kts
2026-04-24 21:24 13.54856 100.58690 33855 ft 487 kts
2026-04-24 21:25 13.61641 100.58874 33851 ft 487 kts
2026-04-24 21:25 13.68536 100.59059 33849 ft 487 kts
2026-04-24 21:26 13.75334 100.59242 33846 ft 486 kts
2026-04-24 21:26 13.82108 100.59425 33844 ft 486 kts
2026-04-24 21:27 13.88878 100.59607 33848 ft 486 kts
2026-04-24 21:27 13.95660 100.59905 33846 ft 485 kts
2026-04-24 21:28 14.02417 100.60272 33842 ft 485 kts
2026-04-24 21:28 14.09159 100.60632 33841 ft 484 kts
2026-04-24 21:29 14.15906 100.60986 33841 ft 485 kts
2026-04-24 21:29 14.22681 100.61339 33844 ft 484 kts
2026-04-24 21:30 14.29415 100.61690 33841 ft 485 kts
2026-04-24 21:30 14.36166 100.62041 33841 ft 485 kts
2026-04-24 21:31 14.42906 100.62392 33843 ft 485 kts
2026-04-24 21:31 14.49691 100.62746 33845 ft 484 kts
2026-04-24 21:32 14.56405 100.63097 33845 ft 484 kts
2026-04-24 21:32 14.63154 100.63448 33845 ft 484 kts
2026-04-24 21:33 14.69895 100.63800 33845 ft 484 kts
2026-04-24 21:33 14.76661 100.64155 33845 ft 484 kts
2026-04-24 21:34 14.83402 100.64507 33846 ft 484 kts
2026-04-24 21:34 14.90130 100.64861 33847 ft 484 kts
2026-04-24 21:35 14.96899 100.65215 33847 ft 484 kts
2026-04-24 21:35 15.03641 100.65570 33849 ft 484 kts
2026-04-24 21:36 15.10373 100.65926 33850 ft 485 kts
2026-04-24 21:36 15.17129 100.66283 33851 ft 485 kts
2026-04-24 21:37 15.23862 100.66904 33855 ft 485 kts
2026-04-24 21:37 15.30499 100.68233 33861 ft 487 kts 12°
2026-04-24 21:38 15.37008 100.70292 33865 ft 489 kts 17°
2026-04-24 21:38 15.43407 100.72690 33872 ft 489 kts 18°
2026-04-24 21:39 15.49821 100.75113 33877 ft 490 kts 18°
2026-04-24 21:39 15.56252 100.77534 33880 ft 490 kts 18°
2026-04-24 21:40 15.62663 100.79947 33875 ft 490 kts 18°
2026-04-24 21:40 15.69105 100.82372 33871 ft 491 kts 17°
2026-04-24 21:41 15.75523 100.84788 33865 ft 491 kts 17°
2026-04-24 21:41 15.81925 100.87200 33862 ft 491 kts 17°
2026-04-24 21:42 15.88393 100.89638 33864 ft 491 kts 17°
2026-04-24 21:42 15.94775 100.92047 33867 ft 491 kts 17°
2026-04-24 21:43 16.01229 100.94484 33872 ft 491 kts 17°
2026-04-24 21:43 16.07697 100.96927 33879 ft 492 kts 17°
2026-04-24 21:44 16.14113 100.99352 33890 ft 492 kts 17°
2026-04-24 21:44 16.20586 101.01801 33904 ft 493 kts 17°
2026-04-24 21:45 16.27057 101.04253 33912 ft 493 kts 17°
2026-04-24 21:45 16.33466 101.06681 33929 ft 493 kts 17°
2026-04-24 21:46 16.39919 101.09129 33944 ft 492 kts 17°
2026-04-24 21:46 16.46347 101.11570 33957 ft 492 kts 17°
2026-04-24 21:47 16.52812 101.14028 33972 ft 493 kts 17°
2026-04-24 21:47 16.59270 101.16486 33963 ft 493 kts 17°
2026-04-24 21:48 16.65738 101.18947 33951 ft 493 kts 16°
2026-04-24 21:48 16.72271 101.21060 33936 ft 491 kts 12°
2026-04-24 21:49 16.78845 101.23009 33929 ft 491 kts 12°
2026-04-24 21:49 16.85420 101.24962 33928 ft 491 kts 12°
2026-04-24 21:50 16.92023 101.26931 33934 ft 491 kts 12°
2026-04-24 21:50 16.98581 101.28892 33940 ft 491 kts 12°
2026-04-24 21:51 17.05207 101.30878 33957 ft 492 kts 12°
2026-04-24 21:51 17.11796 101.32852 33978 ft 492 kts 12°
2026-04-24 21:52 17.18388 101.34816 34003 ft 492 kts 12°
2026-04-24 21:52 17.24998 101.36786 34030 ft 492 kts 12°
2026-04-24 21:53 17.31599 101.38753 34044 ft 493 kts 12°
2026-04-24 21:53 17.38190 101.40725 34036 ft 492 kts 12°
2026-04-24 21:54 17.44792 101.42708 34025 ft 492 kts 12°
2026-04-24 21:54 17.51396 101.44692 34016 ft 493 kts 12°
2026-04-24 21:55 17.57958 101.46667 33999 ft 493 kts 12°
2026-04-24 21:55 17.64559 101.48658 33982 ft 493 kts 12°
2026-04-24 21:56 17.71181 101.50655 33963 ft 493 kts 12°
2026-04-24 21:56 17.77809 101.52643 33950 ft 493 kts 11°
2026-04-24 21:57 17.84434 101.54611 33948 ft 493 kts 11°
2026-04-24 21:57 17.91054 101.56585 33960 ft 494 kts 11°
2026-04-24 21:58 17.97668 101.58564 33960 ft 493 kts 11°
2026-04-24 21:58 18.04257 101.60538 33964 ft 493 kts 11°
2026-04-24 21:59 18.10854 101.62513 33956 ft 493 kts 11°
2026-04-24 21:59 18.18218 101.64723 33951 ft 493 kts 11°
2026-04-24 22:00 18.24977 101.66753 33954 ft 494 kts 11°
2026-04-24 22:00 18.31584 101.68737 33958 ft 494 kts 11°
2026-04-24 22:01 18.38181 101.70723 33953 ft 493 kts 11°
2026-04-24 22:01 18.44770 101.72705 33953 ft 493 kts 11°
2026-04-24 22:02 18.51408 101.74706 33954 ft 493 kts 11°
2026-04-24 22:02 18.57994 101.76690 33956 ft 493 kts 11°
2026-04-24 22:03 18.64609 101.78686 33967 ft 493 kts 11°
2026-04-24 22:03 18.71187 101.80673 33974 ft 493 kts 11°
2026-04-24 22:04 18.77788 101.82667 33983 ft 492 kts 11°
2026-04-24 22:04 18.84376 101.84660 33995 ft 491 kts 11°
2026-04-24 22:05 18.90958 101.86652 34007 ft 491 kts 11°
2026-04-24 22:05 18.97565 101.88654 34014 ft 491 kts 11°
2026-04-24 22:06 19.04133 101.90645 34025 ft 491 kts 11°
2026-04-24 22:06 19.10700 101.92638 34043 ft 492 kts 11°
2026-04-24 22:07 19.17281 101.94639 34071 ft 490 kts 11°
2026-04-24 22:07 19.23880 101.96646 34107 ft 491 kts 10°
2026-04-24 22:08 19.30432 101.98638 34126 ft 490 kts 10°
2026-04-24 22:08 19.37005 102.00639 34113 ft 490 kts 10°
2026-04-24 22:09 19.43546 102.02634 34082 ft 490 kts 10°
2026-04-24 22:09 19.50107 102.04634 34050 ft 490 kts 10°
2026-04-24 22:10 19.56677 102.06642 34030 ft 490 kts 10°
2026-04-24 22:10 19.63229 102.08644 34020 ft 490 kts 10°
2026-04-24 22:11 19.69785 102.10653 34017 ft 489 kts
2026-04-24 22:11 19.76350 102.12667 34012 ft 490 kts
2026-04-24 22:12 19.82918 102.14540 34015 ft 485 kts
2026-04-24 22:12 19.89533 102.15200 34021 ft 473 kts 353°
2026-04-24 22:13 19.96016 102.14491 34022 ft 464 kts 342°
2026-04-24 22:13 20.02143 102.12526 34026 ft 455 kts 333°
2026-04-24 22:14 20.08017 102.10040 34031 ft 454 kts 332°
2026-04-24 22:14 20.13971 102.07492 34042 ft 454 kts 332°
2026-04-24 22:15 20.19815 102.04994 34052 ft 454 kts 332°
2026-04-24 22:15 20.25675 102.02493 34055 ft 452 kts 332°
2026-04-24 22:16 20.31530 101.99993 34052 ft 453 kts 332°
2026-04-24 22:16 20.37377 101.97497 34053 ft 451 kts 332°
2026-04-24 22:17 20.43185 101.95013 34053 ft 452 kts 332°
2026-04-24 22:17 20.49064 101.92497 34045 ft 453 kts 332°
2026-04-24 22:18 20.54888 101.90003 34052 ft 452 kts 332°
2026-04-24 22:18 20.60752 101.87491 34069 ft 451 kts 332°
2026-04-24 22:19 20.66540 101.85009 34070 ft 450 kts 332°
2026-04-24 22:19 20.72338 101.82521 34077 ft 450 kts 332°
2026-04-24 22:20 20.78204 101.80002 34074 ft 449 kts 332°
2026-04-24 22:20 20.84044 101.77491 34073 ft 450 kts 332°
2026-04-24 22:21 20.89851 101.74992 34070 ft 450 kts 332°
2026-04-24 22:21 20.95966 101.72360 34065 ft 449 kts 332°
2026-04-24 22:22 21.01766 101.69860 34067 ft 449 kts 332°
2026-04-24 22:22 21.07553 101.67364 34080 ft 449 kts 332°
2026-04-24 22:23 21.13388 101.64844 34087 ft 449 kts 332°
2026-04-24 22:23 21.19246 101.62313 34095 ft 448 kts 332°
2026-04-24 22:24 21.25035 101.59833 34101 ft 447 kts 332°
2026-04-24 22:24 21.30818 101.57363 34109 ft 447 kts 332°
2026-04-24 22:25 21.36604 101.54887 34113 ft 447 kts 332°
2026-04-24 22:25 21.42390 101.52412 34115 ft 448 kts 332°
2026-04-24 22:26 21.48225 101.49908 34117 ft 447 kts 332°
2026-04-24 22:26 21.54009 101.47428 34113 ft 448 kts 332°
2026-04-24 22:27 21.59788 101.44946 34120 ft 447 kts 332°
2026-04-24 22:27 21.65576 101.42455 34127 ft 446 kts 332°
2026-04-24 22:28 21.71417 101.39942 34134 ft 447 kts 332°
2026-04-24 22:28 21.77209 101.37449 34147 ft 447 kts 332°
2026-04-24 22:29 21.85872 101.33714 34100 ft 445 kts 332°
2026-04-24 22:29 21.91624 101.31230 34074 ft 446 kts 332°
2026-04-24 22:30 21.97402 101.28740 34049 ft 447 kts 332°
2026-04-24 22:30 22.03207 101.26241 34036 ft 447 kts 332°
2026-04-24 22:31 22.08982 101.23753 34047 ft 447 kts 332°
2026-04-24 22:31 22.14822 101.21233 34054 ft 447 kts 332°
2026-04-24 22:32 22.20584 101.18747 34071 ft 448 kts 332°
2026-04-24 22:32 22.26384 101.16239 34078 ft 448 kts 332°
2026-04-24 22:33 22.32161 101.13741 34082 ft 448 kts 332°
2026-04-24 22:33 22.37951 101.11233 34098 ft 449 kts 332°
2026-04-24 22:34 22.43816 101.08690 34118 ft 448 kts 332°
2026-04-24 22:34 22.49635 101.06166 34133 ft 447 kts 332°
2026-04-24 22:35 22.55425 101.03653 34146 ft 448 kts 332°
2026-04-24 22:35 22.61186 101.01150 34156 ft 448 kts 332°
2026-04-24 22:36 22.67053 100.98595 34179 ft 450 kts 332°
2026-04-24 22:36 22.72975 100.96255 34194 ft 453 kts 336°
2026-04-24 22:37 22.79103 100.94405 34199 ft 456 kts 338°
2026-04-24 22:37 22.85212 100.92642 34206 ft 454 kts 338°
2026-04-24 22:38 22.91298 100.90887 34205 ft 453 kts 338°
2026-04-24 22:38 22.97416 100.89117 34229 ft 456 kts 338°
2026-04-24 22:39 23.03598 100.87326 34240 ft 455 kts 338°
2026-04-24 22:39 23.09776 100.85536 34243 ft 455 kts 338°
2026-04-24 22:40 23.15969 100.83741 34246 ft 456 kts 338°
2026-04-24 22:40 23.22144 100.81947 34245 ft 456 kts 339°
2026-04-24 22:41 23.28305 100.80157 34250 ft 455 kts 339°
2026-04-24 22:41 23.34560 100.78336 34247 ft 456 kts 338°
2026-04-24 22:42 23.40723 100.76541 34241 ft 456 kts 339°
2026-04-24 22:42 23.46876 100.74749 34223 ft 456 kts 338°
2026-04-24 22:43 23.53059 100.72945 34217 ft 456 kts 339°
2026-04-24 22:43 23.59184 100.71152 34227 ft 457 kts 339°
2026-04-24 22:44 23.65366 100.69347 34245 ft 457 kts 339°
2026-04-24 22:44 23.71493 100.67553 34255 ft 456 kts 339°
2026-04-24 22:45 23.77718 100.65729 34262 ft 457 kts 338°
2026-04-24 22:45 23.83854 100.63929 34255 ft 455 kts 339°
2026-04-24 22:46 23.90041 100.62115 34258 ft 456 kts 339°
2026-04-24 22:46 23.96155 100.60316 34250 ft 456 kts 338°
2026-04-24 22:47 24.02318 100.58504 34239 ft 458 kts 338°
2026-04-24 22:47 24.08505 100.56683 34235 ft 459 kts 339°
2026-04-24 22:48 24.14810 100.54828 34221 ft 458 kts 339°
2026-04-24 22:48 24.21131 100.52974 34215 ft 459 kts 339°
2026-04-24 22:49 24.27304 100.51168 34205 ft 461 kts 339°
2026-04-24 22:49 24.33622 100.49313 34205 ft 460 kts 339°
2026-04-24 22:50 24.39850 100.47485 34222 ft 460 kts 339°
2026-04-24 22:50 24.46052 100.45662 34231 ft 460 kts 339°
2026-04-24 22:51 24.52340 100.43810 34239 ft 460 kts 340°
2026-04-24 22:51 24.58563 100.41975 34255 ft 461 kts 340°
2026-04-24 22:52 24.64749 100.40147 34267 ft 462 kts 340°
2026-04-24 22:52 24.70981 100.38300 34278 ft 463 kts 340°
2026-04-24 22:53 24.77218 100.36455 34288 ft 463 kts 340°
2026-04-24 22:53 24.83486 100.34593 34291 ft 462 kts 339°
2026-04-24 22:54 24.89744 100.32734 34291 ft 463 kts 340°
2026-04-24 22:54 24.96024 100.30865 34292 ft 464 kts 340°
2026-04-24 22:55 25.02264 100.29012 34300 ft 464 kts 340°
2026-04-24 22:55 25.08528 100.27153 34302 ft 464 kts 340°
2026-04-24 22:56 25.14892 100.25281 34302 ft 465 kts 340°
2026-04-24 22:56 25.21178 100.23428 34308 ft 465 kts 340°
2026-04-24 22:57 25.27515 100.21558 34313 ft 466 kts 340°
2026-04-24 22:57 25.33799 100.19698 34318 ft 467 kts 341°
2026-04-24 22:58 25.40093 100.17838 34324 ft 467 kts 341°
2026-04-24 22:58 25.46408 100.15966 34341 ft 468 kts 341°
2026-04-24 22:59 25.52692 100.14101 34340 ft 468 kts 341°
2026-04-24 23:00 25.62144 100.11298 34364 ft 468 kts 341°
2026-04-24 23:00 25.68456 100.09420 34391 ft 469 kts 341°
2026-04-24 23:01 25.74762 100.07546 34410 ft 470 kts 341°
2026-04-24 23:01 25.81142 100.05647 34421 ft 471 kts 342°
2026-04-24 23:02 25.87476 100.03758 34430 ft 471 kts 342°
2026-04-24 23:02 25.93849 100.01891 34442 ft 472 kts 344°
2026-04-24 23:03 26.00305 100.00585 34464 ft 475 kts 350°
2026-04-24 23:03 26.06933 100.00017 34463 ft 477 kts 356°
2026-04-24 23:04 26.13624 100.00038 34455 ft 478 kts 357°
2026-04-24 23:04 26.20249 100.00030 34451 ft 477 kts 357°
2026-04-24 23:05 26.26907 100.00014 34440 ft 477 kts 357°
2026-04-24 23:05 26.33566 100.00018 34461 ft 476 kts 357°
2026-04-24 23:06 26.40238 100.00022 34482 ft 476 kts 358°
2026-04-24 23:06 26.46857 100.00021 34491 ft 475 kts 358°
2026-04-24 23:07 26.53506 100.00013 34514 ft 475 kts 358°
2026-04-24 23:07 26.60122 100.00020 34502 ft 475 kts 357°
2026-04-24 23:08 26.66723 100.00018 34494 ft 476 kts 358°
2026-04-24 23:08 26.73403 100.00017 34498 ft 475 kts 358°
2026-04-24 23:09 26.80024 100.00016 34480 ft 474 kts 358°
2026-04-24 23:09 26.86616 100.00015 34488 ft 474 kts 358°
2026-04-24 23:10 26.93260 100.00013 34485 ft 474 kts 358°
2026-04-24 23:10 26.99851 100.00012 34483 ft 475 kts 358°
2026-04-24 23:11 27.06507 100.00012 34501 ft 474 kts 358°
2026-04-24 23:11 27.13258 100.00015 34507 ft 474 kts 358°
2026-04-24 23:12 27.19885 100.00015 34518 ft 473 kts 358°
2026-04-24 23:12 27.26576 100.00016 34556 ft 472 kts 358°
2026-04-24 23:13 27.33242 100.00014 34576 ft 472 kts 358°
2026-04-24 23:13 27.40530 100.00011 34603 ft 473 kts 358°
2026-04-24 23:14 27.47533 100.00019 34635 ft 473 kts 358°
2026-04-24 23:14 27.54240 100.00015 34661 ft 472 kts 358°
2026-04-24 23:15 27.61037 100.00016 34667 ft 471 kts 358°
2026-04-24 23:15 27.68037 100.00015 34678 ft 470 kts 358°
2026-04-24 23:16 27.74825 100.00013 34690 ft 470 kts 358°
2026-04-24 23:16 27.81420 100.00014 34695 ft 470 kts 358°
2026-04-24 23:17 27.88041 100.00013 34713 ft 470 kts 358°
2026-04-24 23:17 27.94583 100.00010 34700 ft 470 kts 358°
2026-04-24 23:18 28.01280 100.00042 34700 ft 468 kts 357°
2026-04-24 23:18 28.07786 100.00017 34730 ft 468 kts 357°
2026-04-24 23:19 28.14405 100.00037 34736 ft 468 kts 358°
2026-04-24 23:19 28.20902 100.00015 34741 ft 468 kts 357°
2026-04-24 23:20 28.27438 100.00035 34763 ft 469 kts 357°
2026-04-24 23:20 28.33941 100.00015 34761 ft 468 kts 357°
2026-04-24 23:21 28.40442 100.00034 34755 ft 467 kts 357°
2026-04-24 23:21 28.46924 100.00015 34744 ft 466 kts 357°
2026-04-24 23:22 28.53441 100.00032 34740 ft 466 kts 357°
2026-04-24 23:22 28.59944 100.00011 34763 ft 467 kts 357°
2026-04-24 23:23 28.66401 100.00028 34789 ft 466 kts 356°
2026-04-24 23:23 28.72912 100.00025 34826 ft 466 kts 357°
2026-04-24 23:24 28.79393 100.00021 34850 ft 465 kts 356°
2026-04-24 23:24 28.85862 100.00026 34842 ft 465 kts 356°
2026-04-24 23:25 28.92332 100.00013 34828 ft 465 kts 356°
2026-04-24 23:25 28.98821 100.00024 34821 ft 465 kts 356°
2026-04-24 23:26 29.05267 100.00021 34810 ft 466 kts 356°
2026-04-24 23:26 29.11789 100.00012 34823 ft 465 kts 356°
2026-04-24 23:27 29.18277 100.00018 34834 ft 465 kts 356°
2026-04-24 23:27 29.24748 100.00021 34842 ft 464 kts 356°
2026-04-24 23:28 29.31196 100.00011 34843 ft 464 kts 356°
2026-04-24 23:28 29.37699 100.00014 34841 ft 464 kts 356°
2026-04-24 23:29 29.44165 100.00015 34839 ft 464 kts 356°
2026-04-24 23:29 29.50593 100.00016 34831 ft 464 kts 356°
2026-04-24 23:30 29.57047 100.00017 34832 ft 463 kts 356°
2026-04-24 23:30 29.63475 100.00016 34849 ft 463 kts 356°
2026-04-24 23:31 29.69921 100.00016 34863 ft 463 kts 356°
2026-04-24 23:31 29.76374 100.00015 34878 ft 463 kts 356°
2026-04-24 23:32 29.82809 100.00015 34888 ft 463 kts 356°
2026-04-24 23:32 29.89242 100.00013 34896 ft 462 kts 356°
2026-04-24 23:33 29.95693 100.00015 34896 ft 463 kts 356°
2026-04-24 23:33 30.02136 100.00011 34901 ft 461 kts 356°
2026-04-24 23:34 30.08534 100.00011 34891 ft 461 kts 356°
2026-04-24 23:34 30.15045 100.00011 34875 ft 461 kts 356°
2026-04-24 23:35 30.21500 100.00011 34859 ft 462 kts 355°
2026-04-24 23:35 30.27911 100.00007 34847 ft 462 kts 356°
2026-04-24 23:36 30.34330 100.00020 34855 ft 461 kts 356°
2026-04-24 23:36 30.40719 100.00011 34863 ft 460 kts 356°
2026-04-24 23:37 30.47107 100.00014 34872 ft 459 kts 356°
2026-04-24 23:37 30.56719 100.00011 34864 ft 460 kts 355°
2026-04-24 23:38 30.63106 100.00011 34853 ft 459 kts 356°
2026-04-24 23:38 30.69476 100.00010 34832 ft 458 kts 355°
2026-04-24 23:39 30.75877 100.00013 34829 ft 458 kts 355°
2026-04-24 23:39 30.82249 100.00012 34824 ft 458 kts 355°
2026-04-24 23:40 30.88580 100.00011 34836 ft 457 kts 355°
2026-04-24 23:40 30.94948 100.00011 34853 ft 456 kts 355°
2026-04-24 23:41 31.01301 100.00012 34862 ft 455 kts 355°
2026-04-24 23:41 31.07639 100.00012 34866 ft 457 kts 355°
2026-04-24 23:42 31.14060 100.00013 34867 ft 456 kts 355°
2026-04-24 23:42 31.20374 100.00014 34856 ft 454 kts 356°
2026-04-24 23:43 31.26697 100.00015 34840 ft 454 kts 355°
2026-04-24 23:43 31.33035 100.00017 34828 ft 453 kts 355°
2026-04-24 23:44 31.39332 100.00017 34800 ft 452 kts 355°
2026-04-24 23:44 31.45628 100.00017 34791 ft 453 kts 356°
2026-04-24 23:45 31.51933 100.00018 34769 ft 452 kts 356°
2026-04-24 23:45 31.58190 100.00020 34748 ft 452 kts 355°
2026-04-24 23:46 31.64505 100.00020 34738 ft 451 kts 356°
2026-04-24 23:46 31.70756 100.00021 34745 ft 450 kts 356°
2026-04-24 23:47 31.77040 100.00022 34751 ft 449 kts 356°
2026-04-24 23:47 31.83268 100.00021 34744 ft 450 kts 356°
2026-04-24 23:48 31.89532 99.99953 34736 ft 446 kts 352°
2026-04-24 23:48 31.95521 99.98469 34726 ft 439 kts 338°
2026-04-24 23:49 32.00944 99.95281 34710 ft 436 kts 325°
2026-04-24 23:49 32.05524 99.90606 34702 ft 437 kts 312°
2026-04-24 23:50 32.09226 99.84881 34704 ft 438 kts 307°
2026-04-24 23:50 32.12775 99.79037 34710 ft 438 kts 306°
2026-04-24 23:51 32.16299 99.73212 34729 ft 437 kts 307°
2026-04-24 23:51 32.19821 99.67384 34728 ft 437 kts 307°
2026-04-24 23:52 32.23363 99.61522 34722 ft 439 kts 307°
2026-04-24 23:52 32.26890 99.55670 34734 ft 439 kts 307°
2026-04-24 23:53 32.30433 99.49785 34759 ft 439 kts 307°
2026-04-24 23:53 32.33945 99.43943 34761 ft 439 kts 306°
2026-04-24 23:54 32.37487 99.38043 34750 ft 440 kts 306°
2026-04-24 23:54 32.41041 99.32107 34753 ft 440 kts 306°
2026-04-24 23:55 32.44588 99.26181 34766 ft 440 kts 306°
2026-04-24 23:55 32.48110 99.20282 34779 ft 440 kts 306°
2026-04-24 23:56 32.51637 99.14366 34774 ft 439 kts 306°
2026-04-24 23:56 32.55241 99.08549 34762 ft 438 kts 310°
2026-04-24 23:57 32.59526 99.03500 34779 ft 439 kts 320°
2026-04-24 23:57 32.64569 98.99365 34804 ft 440 kts 329°
2026-04-24 23:58 32.70108 98.96384 34806 ft 443 kts 339°
2026-04-24 23:58 32.75981 98.94142 34805 ft 443 kts 340°
2026-04-24 23:59 32.81899 98.91956 34781 ft 443 kts 340°
2026-04-24 23:59 32.87806 98.89772 34776 ft 445 kts 340°
2026-04-25 00:00 32.93711 98.87582 34789 ft 444 kts 340°
2026-04-25 00:00 32.99590 98.85400 34800 ft 444 kts 340°
2026-04-25 00:01 33.05484 98.83207 34801 ft 442 kts 340°
2026-04-25 00:01 33.11383 98.81011 34814 ft 441 kts 340°
2026-04-25 00:02 33.17291 98.78806 34819 ft 443 kts 340°
2026-04-25 00:02 33.23197 98.76598 34831 ft 444 kts 340°
2026-04-25 00:03 33.29066 98.74401 34840 ft 444 kts 340°
2026-04-25 00:03 33.34964 98.72190 34828 ft 444 kts 340°
2026-04-25 00:04 33.40866 98.69975 34812 ft 444 kts 340°
2026-04-25 00:04 33.46771 98.67757 34801 ft 445 kts 340°
2026-04-25 00:05 33.52665 98.65539 34788 ft 444 kts 340°
2026-04-25 00:05 33.58533 98.63327 34781 ft 445 kts 340°
2026-04-25 00:06 33.64438 98.61101 34775 ft 444 kts 339°
2026-04-25 00:06 33.70311 98.58881 34771 ft 444 kts 340°
2026-04-25 00:07 33.76228 98.56638 34765 ft 444 kts 340°
2026-04-25 00:07 33.82096 98.54413 34764 ft 444 kts 340°
2026-04-25 00:08 33.88003 98.52174 34760 ft 444 kts 340°
2026-04-25 00:08 33.93870 98.49943 34758 ft 442 kts 340°
2026-04-25 00:09 33.99739 98.47711 34764 ft 443 kts 340°
2026-04-25 00:09 34.05585 98.45481 34768 ft 443 kts 340°
2026-04-25 00:10 34.11472 98.43233 34772 ft 444 kts 340°
2026-04-25 00:10 34.17385 98.40973 34777 ft 443 kts 340°
2026-04-25 00:11 34.23264 98.38720 34771 ft 443 kts 340°
2026-04-25 00:11 34.29127 98.36472 34763 ft 442 kts 340°
2026-04-25 00:12 34.35026 98.34205 34763 ft 442 kts 339°
2026-04-25 00:12 34.40891 98.31950 34759 ft 443 kts 340°
2026-04-25 00:13 34.46744 98.29697 34754 ft 444 kts 339°
2026-04-25 00:13 34.52616 98.27433 34754 ft 443 kts 339°
2026-04-25 00:14 34.58488 98.25163 34742 ft 444 kts 339°
2026-04-25 00:14 34.64399 98.22875 34743 ft 443 kts 339°
2026-04-25 00:15 34.70270 98.20603 34736 ft 443 kts 339°
2026-04-25 00:15 34.76125 98.18331 34732 ft 443 kts 339°
2026-04-25 00:16 34.81999 98.16049 34723 ft 444 kts 339°
2026-04-25 00:16 34.87883 98.13757 34721 ft 445 kts 339°
2026-04-25 00:17 34.93776 98.11461 34720 ft 445 kts 339°
2026-04-25 00:17 34.99678 98.09157 34712 ft 444 kts 339°
2026-04-25 00:18 35.05525 98.06870 34702 ft 445 kts 339°
2026-04-25 00:18 35.11468 98.04542 34703 ft 446 kts 339°
2026-04-25 00:19 35.17399 98.02217 34705 ft 446 kts 339°
2026-04-25 00:19 35.23294 97.99902 34707 ft 446 kts 339°
2026-04-25 00:20 35.29239 97.97564 34702 ft 446 kts 339°
2026-04-25 00:20 35.35126 97.95245 34689 ft 444 kts 339°
2026-04-25 00:21 35.41017 97.92919 34679 ft 446 kts 339°
2026-04-25 00:21 35.46913 97.90588 34665 ft 447 kts 339°
2026-04-25 00:22 35.52833 97.88245 34655 ft 447 kts 339°
2026-04-25 00:22 35.58736 97.85905 34658 ft 447 kts 339°
2026-04-25 00:23 35.64648 97.83558 34657 ft 447 kts 339°
2026-04-25 00:23 35.70552 97.81211 34663 ft 447 kts 339°
2026-04-25 00:24 35.76471 97.78853 34671 ft 448 kts 339°
2026-04-25 00:24 35.82390 97.76492 34655 ft 448 kts 339°
2026-04-25 00:25 35.88326 97.74120 34641 ft 447 kts 339°
2026-04-25 00:25 35.94255 97.71746 34598 ft 448 kts 339°
2026-04-25 00:26 36.00181 97.69371 34564 ft 448 kts 339°
2026-04-25 00:26 36.06055 97.66918 34547 ft 446 kts 334°
2026-04-25 00:27 36.11478 97.63226 34528 ft 442 kts 322°
2026-04-25 00:27 36.16069 97.58194 34527 ft 440 kts 311°
2026-04-25 00:28 36.19643 97.52088 34540 ft 439 kts 300°
2026-04-25 00:28 36.22440 97.45358 34548 ft 439 kts 297°
2026-04-25 00:29 36.25155 97.38605 34550 ft 439 kts 297°
2026-04-25 00:29 36.27902 97.31750 34562 ft 439 kts 296°
2026-04-25 00:30 36.30619 97.24968 34559 ft 439 kts 296°
2026-04-25 00:30 36.33309 97.18238 34571 ft 439 kts 296°
2026-04-25 00:31 36.36006 97.11475 34572 ft 439 kts 296°
2026-04-25 00:31 36.38710 97.04683 34559 ft 439 kts 296°
2026-04-25 00:32 36.41391 96.97934 34562 ft 438 kts 296°
2026-04-25 00:32 36.44076 96.91158 34557 ft 438 kts 296°
2026-04-25 00:33 36.46767 96.84356 34551 ft 439 kts 296°
2026-04-25 00:33 36.49448 96.77563 34556 ft 439 kts 296°
2026-04-25 00:34 36.52117 96.70783 34526 ft 440 kts 296°
2026-04-25 00:34 36.54791 96.63973 34515 ft 440 kts 296°
2026-04-25 00:35 36.57486 96.57127 34514 ft 441 kts 296°
2026-04-25 00:35 36.60210 96.50341 34520 ft 441 kts 297°
2026-04-25 00:36 36.62938 96.43538 34506 ft 441 kts 296°
2026-04-25 00:36 36.65657 96.36731 34500 ft 441 kts 296°
2026-04-25 00:37 36.68386 96.29872 34485 ft 441 kts 296°
2026-04-25 00:37 36.71103 96.23035 34482 ft 441 kts 296°
2026-04-25 00:38 36.73817 96.16188 34462 ft 442 kts 296°
2026-04-25 00:38 36.76545 96.09290 34456 ft 443 kts 296°
2026-04-25 00:39 36.79255 96.02454 34444 ft 443 kts 296°
2026-04-25 00:39 36.81994 95.95595 34463 ft 442 kts 296°
2026-04-25 00:40 36.84730 95.88715 34428 ft 442 kts 296°
2026-04-25 00:40 36.87445 95.81873 34411 ft 442 kts 296°
2026-04-25 00:41 36.90163 95.75015 34420 ft 443 kts 296°
2026-04-25 00:41 36.92887 95.68119 34418 ft 442 kts 296°
2026-04-25 00:42 36.95597 95.61237 34407 ft 443 kts 296°
2026-04-25 00:42 36.98297 95.54369 34395 ft 444 kts 296°
2026-04-25 00:43 37.01024 95.47469 34375 ft 443 kts 297°
2026-04-25 00:43 37.03821 95.40616 34382 ft 443 kts 297°
2026-04-25 00:44 37.06634 95.33717 34376 ft 444 kts 296°
2026-04-25 00:44 37.09431 95.26828 34388 ft 443 kts 296°
2026-04-25 00:45 37.12255 95.19852 34382 ft 443 kts 296°
2026-04-25 00:45 37.15027 95.12981 34383 ft 443 kts 296°
2026-04-25 00:46 37.17775 95.06154 34387 ft 442 kts 296°
2026-04-25 00:47 37.21915 94.95844 34390 ft 441 kts 296°
2026-04-25 00:47 37.24666 94.88972 34388 ft 441 kts 296°
2026-04-25 00:48 37.27405 94.82121 34396 ft 441 kts 296°
2026-04-25 00:48 37.30148 94.75236 34399 ft 441 kts 296°
2026-04-25 00:49 37.32894 94.68339 34397 ft 441 kts 296°
2026-04-25 00:49 37.35613 94.61485 34403 ft 442 kts 296°
2026-04-25 00:50 37.38352 94.54572 34396 ft 442 kts 296°
2026-04-25 00:50 37.41077 94.47679 34395 ft 442 kts 296°
2026-04-25 00:51 37.43806 94.40758 34391 ft 442 kts 296°
2026-04-25 00:51 37.46541 94.33807 34391 ft 442 kts 295°
2026-04-25 00:52 37.49271 94.26850 34389 ft 443 kts 295°
2026-04-25 00:52 37.51981 94.19937 34386 ft 442 kts 295°
2026-04-25 00:53 37.54682 94.13023 34389 ft 442 kts 295°
2026-04-25 00:53 37.57397 94.06065 34385 ft 444 kts 295°
2026-04-25 00:54 37.60114 93.99082 34385 ft 444 kts 295°
2026-04-25 00:54 37.62817 93.92124 34387 ft 444 kts 295°
2026-04-25 00:55 37.65514 93.85159 34391 ft 443 kts 295°
2026-04-25 00:55 37.68203 93.78203 34394 ft 442 kts 295°
2026-04-25 00:56 37.70884 93.71248 34401 ft 442 kts 295°
2026-04-25 00:56 37.73565 93.64281 34399 ft 442 kts 295°
2026-04-25 00:57 37.76247 93.57300 34397 ft 442 kts 295°
2026-04-25 00:57 37.79198 93.49595 34396 ft 442 kts 295°
2026-04-25 00:58 37.81867 93.42609 34397 ft 442 kts 295°
2026-04-25 00:58 37.84524 93.35634 34400 ft 442 kts 295°
2026-04-25 00:59 37.87209 93.28579 34394 ft 442 kts 294°
2026-04-25 00:59 37.89862 93.21584 34394 ft 441 kts 294°
2026-04-25 01:00 37.92508 93.14590 34378 ft 442 kts 294°
2026-04-25 01:00 37.95135 93.07636 34377 ft 440 kts 294°
2026-04-25 01:01 37.97766 93.00658 34390 ft 439 kts 294°
2026-04-25 01:01 38.00392 92.93674 34389 ft 440 kts 294°
2026-04-25 01:02 38.03022 92.86670 34394 ft 440 kts 294°
2026-04-25 01:02 38.05638 92.79672 34400 ft 440 kts 294°
2026-04-25 01:03 38.08246 92.72685 34398 ft 442 kts 294°
2026-04-25 01:03 38.10875 92.65627 34395 ft 440 kts 294°
2026-04-25 01:04 38.13922 92.58899 34399 ft 444 kts 305°
2026-04-25 01:04 38.18266 92.53314 34411 ft 450 kts 319°
2026-04-25 01:05 38.23676 92.49282 34408 ft 458 kts 333°
2026-04-25 01:05 38.29871 92.47104 34417 ft 467 kts 345°
2026-04-25 01:06 38.36270 92.45715 34425 ft 468 kts 346°
2026-04-25 01:06 38.42724 92.44347 34427 ft 468 kts 346°
2026-04-25 01:07 38.49094 92.42980 34433 ft 468 kts 345°
2026-04-25 01:07 38.55506 92.41593 34446 ft 469 kts 346°
2026-04-25 01:08 38.61934 92.40200 34450 ft 469 kts 346°
2026-04-25 01:08 38.68373 92.38796 34463 ft 469 kts 345°
2026-04-25 01:09 38.74799 92.37392 34467 ft 469 kts 345°
2026-04-25 01:09 38.81209 92.35986 34456 ft 469 kts 345°
2026-04-25 01:10 38.87667 92.34566 34471 ft 469 kts 345°
2026-04-25 01:10 38.94101 92.33150 34464 ft 469 kts 345°
2026-04-25 01:11 39.00536 92.31730 34470 ft 469 kts 345°
2026-04-25 01:11 39.06950 92.30313 34466 ft 469 kts 345°
2026-04-25 01:12 39.13384 92.29047 34461 ft 469 kts 347°
2026-04-25 01:12 39.19846 92.27928 34434 ft 470 kts 347°
2026-04-25 01:13 39.26323 92.26791 34428 ft 470 kts 346°
2026-04-25 01:13 39.32764 92.25645 34394 ft 469 kts 346°
2026-04-25 01:14 39.39205 92.24493 34356 ft 467 kts 347°
2026-04-25 01:14 39.45653 92.23334 34330 ft 467 kts 347°
2026-04-25 01:15 39.52119 92.22173 34306 ft 467 kts 347°
2026-04-25 01:15 39.58528 92.21017 34251 ft 465 kts 347°
2026-04-25 01:16 39.64924 92.19862 34222 ft 464 kts 347°
2026-04-25 01:16 39.71304 92.18705 34204 ft 463 kts 347°
2026-04-25 01:17 39.77678 92.17565 34164 ft 463 kts 347°
2026-04-25 01:17 39.84056 92.16485 34142 ft 463 kts 347°
2026-04-25 01:18 39.90460 92.15400 34115 ft 463 kts 347°
2026-04-25 01:18 39.96811 92.14320 34058 ft 460 kts 347°
2026-04-25 01:19 40.03140 92.13239 34035 ft 459 kts 347°
2026-04-25 01:19 40.09439 92.12161 34025 ft 458 kts 347°
2026-04-25 01:20 40.15800 92.11070 34012 ft 460 kts 347°
2026-04-25 01:20 40.22138 92.09981 34011 ft 461 kts 347°
2026-04-25 01:21 40.28514 92.08881 34008 ft 460 kts 347°
2026-04-25 01:21 40.34863 92.07786 34012 ft 460 kts 347°
2026-04-25 01:22 40.41204 92.06689 34016 ft 459 kts 347°
2026-04-25 01:22 40.47535 92.05592 34028 ft 461 kts 347°
2026-04-25 01:23 40.53900 92.04487 34043 ft 461 kts 347°
2026-04-25 01:23 40.60228 92.03387 34052 ft 461 kts 347°
2026-04-25 01:24 40.66586 92.02280 34058 ft 460 kts 347°
2026-04-25 01:24 40.72905 92.01178 34063 ft 460 kts 347°
2026-04-25 01:25 40.79214 92.00075 34063 ft 459 kts 347°
2026-04-25 01:25 40.85560 91.98962 34059 ft 461 kts 347°
2026-04-25 01:26 40.91928 91.97842 34061 ft 462 kts 347°
2026-04-25 01:26 40.98306 91.96722 34057 ft 462 kts 347°
2026-04-25 01:27 41.04680 91.95597 34047 ft 461 kts 347°
2026-04-25 01:27 41.10994 91.94482 34042 ft 460 kts 347°
2026-04-25 01:28 41.20539 91.92792 34037 ft 461 kts 346°
2026-04-25 01:28 41.26902 91.91660 34036 ft 463 kts 347°
2026-04-25 01:29 41.33282 91.90527 34040 ft 463 kts 346°
2026-04-25 01:29 41.39647 91.89394 34044 ft 462 kts 347°
2026-04-25 01:30 41.46007 91.88260 34051 ft 462 kts 346°
2026-04-25 01:30 41.52398 91.87115 34059 ft 462 kts 346°
2026-04-25 01:31 41.58761 91.85972 34066 ft 463 kts 346°
2026-04-25 01:31 41.65102 91.84839 34065 ft 463 kts 347°
2026-04-25 01:32 41.71517 91.83717 34070 ft 464 kts 347°
2026-04-25 01:32 41.77916 91.82595 34079 ft 464 kts 346°
2026-04-25 01:33 41.84316 91.81471 34081 ft 464 kts 346°
2026-04-25 01:33 41.90667 91.80350 34083 ft 464 kts 346°
2026-04-25 01:34 41.97102 91.79213 34080 ft 464 kts 346°
2026-04-25 01:34 42.03453 91.78088 34081 ft 464 kts 346°
2026-04-25 01:35 42.09848 91.76952 34073 ft 464 kts 347°
2026-04-25 01:35 42.16220 91.75562 34065 ft 461 kts 342°
2026-04-25 01:36 42.22342 91.73246 34056 ft 456 kts 335°
2026-04-25 01:36 42.28149 91.70016 34055 ft 450 kts 329°
2026-04-25 01:37 42.33593 91.65971 34047 ft 446 kts 324°
2026-04-25 01:37 42.38889 91.61636 34044 ft 446 kts 324°
2026-04-25 01:38 42.44189 91.57269 34036 ft 446 kts 324°
2026-04-25 01:38 42.49489 91.52904 34028 ft 447 kts 324°
2026-04-25 01:39 42.54771 91.48543 34025 ft 447 kts 324°
2026-04-25 01:39 42.60068 91.44168 34018 ft 447 kts 324°
2026-04-25 01:40 42.65371 91.39774 34012 ft 446 kts 323°
2026-04-25 01:40 42.70630 91.35407 34002 ft 446 kts 324°
2026-04-25 01:41 42.75974 91.30961 33992 ft 446 kts 323°
2026-04-25 01:41 42.81239 91.26572 33983 ft 445 kts 323°
2026-04-25 01:42 42.86342 91.21937 33985 ft 443 kts 319°
2026-04-25 01:42 42.91140 91.16605 33988 ft 440 kts 314°
2026-04-25 01:43 42.95528 91.10839 33994 ft 439 kts 311°
2026-04-25 01:43 42.99841 91.04978 34000 ft 438 kts 311°
2026-04-25 01:44 43.04139 90.99120 34005 ft 439 kts 311°
2026-04-25 01:44 43.08472 90.93204 34018 ft 439 kts 311°
2026-04-25 01:45 43.12801 90.87283 34022 ft 438 kts 311°
2026-04-25 01:45 43.17102 90.81390 34032 ft 439 kts 311°
2026-04-25 01:46 43.21397 90.75490 34046 ft 439 kts 311°
2026-04-25 01:46 43.25700 90.69571 34080 ft 439 kts 311°
2026-04-25 01:47 43.29975 90.63670 34104 ft 439 kts 311°
2026-04-25 01:47 43.34290 90.57706 34134 ft 438 kts 311°
2026-04-25 01:48 43.38546 90.51768 34157 ft 438 kts 309°
2026-04-25 01:48 43.42678 90.45612 34190 ft 439 kts 309°
2026-04-25 01:49 43.46764 90.39474 34212 ft 438 kts 309°
2026-04-25 01:49 43.50890 90.33294 34224 ft 438 kts 308°
2026-04-25 01:50 43.55020 90.27101 34223 ft 438 kts 308°
2026-04-25 01:50 43.59133 90.20923 34209 ft 439 kts 308°
2026-04-25 01:51 43.63255 90.14717 34192 ft 439 kts 308°
2026-04-25 01:51 43.67351 90.08538 34176 ft 438 kts 308°
2026-04-25 01:52 43.71456 90.02396 34161 ft 437 kts 309°
2026-04-25 01:52 43.75599 89.96207 34158 ft 437 kts 309°
2026-04-25 01:53 43.79691 89.90077 34169 ft 437 kts 309°
2026-04-25 01:53 43.83823 89.83864 34164 ft 438 kts 308°
2026-04-25 01:54 43.87930 89.77675 34166 ft 438 kts 308°
2026-04-25 01:54 43.92102 89.71574 34162 ft 441 kts 314°
2026-04-25 01:55 43.97226 89.66716 34171 ft 451 kts 328°
2026-04-25 01:55 44.03196 89.63821 34187 ft 465 kts 342°
2026-04-25 01:56 44.09690 89.63220 34189 ft 479 kts 358°
2026-04-25 01:56 44.16407 89.64390 34200 ft 483 kts
2026-04-25 01:57 44.26351 89.66373 34188 ft 483 kts
2026-04-25 01:58 44.33003 89.67568 34187 ft 480 kts 358°
2026-04-25 01:58 44.39628 89.67728 34184 ft 472 kts 351°
2026-04-25 01:59 44.46077 89.66644 34171 ft 465 kts 343°
2026-04-25 01:59 44.52248 89.64404 34173 ft 459 kts 336°
2026-04-25 02:00 44.58268 89.61566 34173 ft 458 kts 335°
2026-04-25 02:00 44.64338 89.58655 34169 ft 459 kts 335°
2026-04-25 02:01 44.70371 89.55766 34166 ft 459 kts 335°
2026-04-25 02:01 44.76416 89.52872 34169 ft 459 kts 335°
2026-04-25 02:02 44.82455 89.49978 34156 ft 460 kts 335°
2026-04-25 02:02 44.88487 89.47083 34168 ft 460 kts 335°
2026-04-25 02:03 44.94543 89.44167 34161 ft 461 kts 335°
2026-04-25 02:03 45.00586 89.41253 34165 ft 459 kts 335°
2026-04-25 02:04 45.06604 89.38341 34162 ft 460 kts 335°
2026-04-25 02:04 45.12704 89.35386 34161 ft 460 kts 335°
2026-04-25 02:05 45.18773 89.32436 34166 ft 462 kts 334°
2026-04-25 02:05 45.24839 89.29485 34164 ft 462 kts 335°
2026-04-25 02:06 45.30930 89.26513 34168 ft 462 kts 335°
2026-04-25 02:06 45.36973 89.23560 34152 ft 463 kts 335°
2026-04-25 02:07 45.43071 89.20571 34165 ft 464 kts 335°
2026-04-25 02:07 45.49139 89.17593 34155 ft 464 kts 335°
2026-04-25 02:08 45.55249 89.14584 34171 ft 465 kts 335°
2026-04-25 02:08 45.61364 89.11565 34169 ft 467 kts 335°
2026-04-25 02:09 45.67487 89.08540 34158 ft 466 kts 335°
2026-04-25 02:09 45.73622 89.05498 34179 ft 466 kts 335°
2026-04-25 02:10 45.79745 89.02454 34156 ft 467 kts 335°
2026-04-25 02:10 45.85855 88.99410 34157 ft 468 kts 335°
2026-04-25 02:11 45.92036 88.96422 34166 ft 470 kts 336°
2026-04-25 02:11 45.98239 88.93552 34153 ft 471 kts 337°
2026-04-25 02:12 46.04454 88.90668 34156 ft 471 kts 336°
2026-04-25 02:12 46.10654 88.87771 34152 ft 469 kts 336°
2026-04-25 02:13 46.16958 88.84813 34153 ft 470 kts 337°
2026-04-25 02:13 46.23154 88.81896 34153 ft 470 kts 337°
2026-04-25 02:14 46.29351 88.78973 34153 ft 470 kts 337°
2026-04-25 02:14 46.35577 88.76031 34150 ft 471 kts 337°
2026-04-25 02:15 46.41800 88.73080 34150 ft 471 kts 337°
2026-04-25 02:15 46.47994 88.70138 34152 ft 471 kts 337°
2026-04-25 02:16 46.54213 88.67176 34153 ft 471 kts 337°
2026-04-25 02:16 46.60429 88.64208 34153 ft 470 kts 337°
2026-04-25 02:17 46.66622 88.61243 34151 ft 470 kts 337°
2026-04-25 02:17 46.72833 88.58262 34148 ft 470 kts 337°
2026-04-25 02:18 46.79010 88.55291 34147 ft 470 kts 337°
2026-04-25 02:18 46.85229 88.52292 34153 ft 471 kts 337°
2026-04-25 02:19 46.91448 88.49287 34148 ft 471 kts 337°
2026-04-25 02:19 46.97625 88.46294 34149 ft 471 kts 337°
2026-04-25 02:20 47.03836 88.43277 34148 ft 471 kts 337°
2026-04-25 02:20 47.10037 88.40258 34150 ft 472 kts 337°
2026-04-25 02:21 47.16306 88.37199 34147 ft 472 kts 337°
2026-04-25 02:21 47.22594 88.34123 34156 ft 471 kts 336°
2026-04-25 02:22 47.28837 88.31062 34156 ft 470 kts 336°
2026-04-25 02:22 47.35028 88.28015 34165 ft 470 kts 336°
2026-04-25 02:23 47.41209 88.24968 34160 ft 471 kts 336°
2026-04-25 02:23 47.47403 88.21907 34162 ft 471 kts 337°
2026-04-25 02:24 47.53627 88.18822 34174 ft 472 kts 337°
2026-04-25 02:24 47.59853 88.15730 34172 ft 473 kts 337°
2026-04-25 02:25 47.66057 88.12640 34176 ft 472 kts 337°
2026-04-25 02:25 47.72241 88.09551 34179 ft 473 kts 337°
2026-04-25 02:26 47.78497 88.06553 34184 ft 473 kts 339°
2026-04-25 02:26 47.84830 88.03754 34192 ft 473 kts 339°
2026-04-25 02:27 47.91129 88.00959 34196 ft 474 kts 339°
2026-04-25 02:27 47.97420 87.98141 34194 ft 475 kts 339°
2026-04-25 02:28 48.03729 87.95302 34191 ft 475 kts 339°
2026-04-25 02:28 48.10037 87.92453 34197 ft 476 kts 339°
2026-04-25 02:29 48.16419 87.89563 34200 ft 475 kts 339°
2026-04-25 02:29 48.22715 87.86703 34198 ft 475 kts 339°
2026-04-25 02:30 48.29019 87.83833 34217 ft 475 kts 339°
2026-04-25 02:30 48.35352 87.80942 34222 ft 476 kts 339°
2026-04-25 02:31 48.41638 87.78065 34233 ft 476 kts 339°
2026-04-25 02:31 48.47980 87.75153 34243 ft 476 kts 339°
2026-04-25 02:32 48.54285 87.72253 34251 ft 476 kts 339°
2026-04-25 02:32 48.60592 87.69340 34268 ft 476 kts 339°
2026-04-25 02:33 48.66960 87.66396 34271 ft 476 kts 339°
2026-04-25 02:33 48.73248 87.63480 34286 ft 476 kts 339°
2026-04-25 02:34 48.79598 87.60525 34294 ft 477 kts 339°
2026-04-25 02:34 48.85931 87.57571 34298 ft 478 kts 340°
2026-04-25 02:35 48.92243 87.54621 34299 ft 477 kts 340°
2026-04-25 02:35 48.98563 87.51658 34307 ft 477 kts 340°
2026-04-25 02:36 49.05029 87.49204 34305 ft 480 kts 346°
2026-04-25 02:36 49.11619 87.47803 34309 ft 482 kts 352°
2026-04-25 02:37 49.18380 87.47295 34301 ft 484 kts 355°
2026-04-25 02:37 49.25092 87.46699 34299 ft 481 kts 350°
2026-04-25 02:38 49.31646 87.44900 34305 ft 478 kts 343°
2026-04-25 02:38 49.37915 87.41910 34292 ft 475 kts 337°
2026-04-25 02:39 49.44094 87.38343 34298 ft 474 kts 336°
2026-04-25 02:39 49.50250 87.34741 34295 ft 474 kts 336°
2026-04-25 02:40 49.56446 87.31126 34293 ft 474 kts 336°
2026-04-25 02:40 49.62580 87.27548 34261 ft 473 kts 336°
2026-04-25 02:41 49.68693 87.23976 34266 ft 473 kts 336°
2026-04-25 02:41 49.74862 87.20363 34265 ft 473 kts 336°
2026-04-25 02:42 49.80966 87.16775 34273 ft 473 kts 336°
2026-04-25 02:42 49.87109 87.13155 34266 ft 473 kts 336°
2026-04-25 02:43 49.93231 87.09542 34266 ft 473 kts 336°
2026-04-25 02:43 49.99371 87.05905 34259 ft 473 kts 337°
2026-04-25 02:44 50.05485 87.02275 34266 ft 472 kts 337°
2026-04-25 02:44 50.11644 86.98608 34263 ft 472 kts 337°
2026-04-25 02:45 50.17768 86.94952 34259 ft 472 kts 337°
2026-04-25 02:45 50.23876 86.91293 34257 ft 471 kts 337°
2026-04-25 02:46 50.30004 86.87616 34255 ft 471 kts 337°
2026-04-25 02:46 50.36105 86.83995 34257 ft 471 kts 337°
2026-04-25 02:47 50.42191 86.80377 34264 ft 471 kts 337°
2026-04-25 02:47 50.48288 86.76741 34259 ft 471 kts 337°
2026-04-25 02:48 50.54388 86.73091 34253 ft 470 kts 338°
2026-04-25 02:48 50.60515 86.69415 34254 ft 470 kts 338°
2026-04-25 02:49 50.66576 86.65765 34245 ft 470 kts 338°
2026-04-25 02:49 50.72672 86.62085 34234 ft 469 kts 338°
2026-04-25 02:50 50.78725 86.58421 34227 ft 470 kts 338°
2026-04-25 02:50 50.84827 86.54719 34225 ft 471 kts 338°
2026-04-25 02:51 50.90900 86.51028 34220 ft 470 kts 338°
2026-04-25 02:51 50.97004 86.47303 34218 ft 469 kts 338°
2026-04-25 02:52 51.03060 86.43597 34217 ft 468 kts 338°
2026-04-25 02:52 51.09121 86.39877 34214 ft 468 kts 338°
2026-04-25 02:53 51.15213 86.36125 34227 ft 467 kts 338°
2026-04-25 02:53 51.21323 86.32356 34211 ft 466 kts 337°
2026-04-25 02:54 51.27340 86.28640 34209 ft 466 kts 337°
2026-04-25 02:54 51.33367 86.24902 34200 ft 466 kts 337°
2026-04-25 02:55 51.39373 86.21166 34208 ft 465 kts 337°
2026-04-25 02:55 51.45393 86.17411 34203 ft 464 kts 337°
2026-04-25 02:56 51.51370 86.13673 34188 ft 463 kts 337°
2026-04-25 02:56 51.57339 86.09929 34186 ft 462 kts 337°
2026-04-25 02:57 51.63312 86.06171 34178 ft 461 kts 337°
2026-04-25 02:57 51.69265 86.02415 34178 ft 460 kts 337°
2026-04-25 02:58 51.75211 85.98652 34181 ft 460 kts 337°
2026-04-25 02:58 51.81130 85.94894 34175 ft 460 kts 337°
2026-04-25 02:59 51.87070 85.91112 34178 ft 460 kts 337°
2026-04-25 02:59 51.92977 85.87340 34177 ft 458 kts 336°
2026-04-25 03:00 51.98745 85.83019 34167 ft 456 kts 331°
2026-04-25 03:00 52.04272 85.78024 34171 ft 455 kts 329°
2026-04-25 03:01 52.09718 85.72961 34171 ft 455 kts 329°
2026-04-25 03:01 52.15248 85.67812 34171 ft 454 kts 329°
2026-04-25 03:02 52.20755 85.62678 34170 ft 454 kts 329°
2026-04-25 03:02 52.26211 85.57581 34172 ft 454 kts 329°
2026-04-25 03:03 52.31626 85.52509 34167 ft 454 kts 329°
2026-04-25 03:03 52.37093 85.47371 34175 ft 453 kts 329°
2026-04-25 03:04 52.42553 85.42223 34183 ft 452 kts 329°
2026-04-25 03:04 52.47982 85.37078 34173 ft 452 kts 329°
2026-04-25 03:05 52.56078 85.29141 34174 ft 452 kts 328°
2026-04-25 03:05 52.61443 85.23852 34172 ft 452 kts 328°
2026-04-25 03:06 52.66792 85.18571 34174 ft 451 kts 328°
2026-04-25 03:06 52.72185 85.13232 34165 ft 451 kts 328°
2026-04-25 03:07 52.77546 85.07909 34173 ft 450 kts 328°
2026-04-25 03:07 52.82864 85.02617 34169 ft 450 kts 328°
2026-04-25 03:08 52.88209 84.97280 34163 ft 450 kts 328°
2026-04-25 03:08 52.93546 84.91939 34170 ft 450 kts 328°
2026-04-25 03:09 52.98917 84.86546 34172 ft 450 kts 328°
2026-04-25 03:09 53.04236 84.81187 34170 ft 449 kts 328°
2026-04-25 03:10 53.09542 84.75830 34174 ft 448 kts 328°
2026-04-25 03:10 53.14867 84.70433 34163 ft 448 kts 328°
2026-04-25 03:11 53.20160 84.65057 34172 ft 446 kts 328°
2026-04-25 03:11 53.25453 84.59663 34159 ft 446 kts 328°
2026-04-25 03:12 53.30701 84.54298 34167 ft 446 kts 328°
2026-04-25 03:12 53.35992 84.48870 34162 ft 446 kts 328°
2026-04-25 03:13 53.41273 84.43440 34160 ft 445 kts 328°
2026-04-25 03:13 53.46495 84.38059 34166 ft 444 kts 328°
2026-04-25 03:14 53.51732 84.32649 34159 ft 443 kts 327°
2026-04-25 03:14 53.57018 84.27168 34160 ft 444 kts 327°
2026-04-25 03:15 53.62224 84.21755 34160 ft 443 kts 327°
2026-04-25 03:15 53.67455 84.16294 34156 ft 442 kts 327°
2026-04-25 03:16 53.72657 84.10849 34156 ft 443 kts 327°
2026-04-25 03:16 53.77852 84.05396 34143 ft 442 kts 327°
2026-04-25 03:17 53.83080 83.99892 34152 ft 442 kts 327°
2026-04-25 03:17 53.88268 83.94415 34146 ft 442 kts 327°
2026-04-25 03:18 53.93474 83.88902 34144 ft 442 kts 327°
2026-04-25 03:18 53.98664 83.83385 34144 ft 442 kts 327°
2026-04-25 03:19 54.03834 83.77876 34139 ft 440 kts 327°
2026-04-25 03:19 54.06590 83.75583 34105 ft 443 kts 342°
2026-04-25 03:19 54.09629 83.74912 34127 ft 451 kts 359°
2026-04-25 03:20 54.12985 83.76047 34134 ft 460 kts 17°
2026-04-25 03:20 54.16042 83.78835 34152 ft 466 kts 27°
2026-04-25 03:20 54.21874 83.84766 34141 ft 466 kts 26°
2026-04-25 03:21 54.27447 83.90402 34139 ft 466 kts 26°
2026-04-25 03:21 54.32978 83.96005 34131 ft 466 kts 26°
2026-04-25 03:22 54.38536 84.01650 34133 ft 466 kts 26°
2026-04-25 03:22 54.44350 84.07527 34127 ft 464 kts 23°
2026-04-25 03:23 54.47402 84.09295 34106 ft 451 kts
2026-04-25 03:23 54.50457 84.09090 34121 ft 440 kts 343°
2026-04-25 03:23 54.53280 84.06972 34126 ft 435 kts 323°
2026-04-25 03:23 54.55400 84.03314 34133 ft 433 kts 305°
2026-04-25 03:24 54.58496 83.94414 34133 ft 434 kts 302°
2026-04-25 03:24 54.61853 83.85223 34127 ft 434 kts 304°
2026-04-25 03:25 54.65821 83.75181 34125 ft 434 kts 306°
2026-04-25 03:25 54.69905 83.65114 34121 ft 434 kts 306°
2026-04-25 03:26 54.73989 83.55092 34119 ft 435 kts 306°
2026-04-25 03:26 54.77659 83.46069 34119 ft 435 kts 306°
2026-04-25 03:27 54.81198 83.37341 34113 ft 434 kts 306°
2026-04-25 03:27 54.84834 83.28338 34110 ft 435 kts 305°
2026-04-25 03:28 54.88441 83.19374 34112 ft 434 kts 305°
2026-04-25 03:28 54.91863 83.10843 34109 ft 434 kts 305°
2026-04-25 03:29 54.95668 83.02684 34104 ft 428 kts 311°
2026-04-25 03:29 54.97608 82.98924 34112 ft 413 kts 311°
2026-04-25 03:29 54.99475 82.95293 34112 ft 398 kts 311°
2026-04-25 03:30 55.01284 82.91743 34114 ft 384 kts 311°
2026-04-25 03:30 55.02992 82.88345 34108 ft 370 kts 309°
2026-04-25 03:30 55.04289 82.84602 34090 ft 357 kts 292°
2026-04-25 03:30 55.04785 82.80477 34093 ft 350 kts 274°
2026-04-25 03:31 55.04420 82.76234 34098 ft 359 kts 255°
2026-04-25 03:31 55.03266 82.72361 34109 ft 367 kts 244°
2026-04-25 03:31 55.02087 82.68463 34100 ft 360 kts 255°
2026-04-25 03:31 55.01264 82.64365 34103 ft 359 kts 256°
2026-04-25 03:32 54.99654 82.56222 34098 ft 359 kts 256°
2026-04-25 03:32 54.98030 82.47987 34097 ft 360 kts 256°
2026-04-25 03:33 54.96422 82.39759 34093 ft 361 kts 257°
2026-04-25 03:33 54.94799 82.31462 34093 ft 362 kts 256°
2026-04-25 03:34 54.93176 82.23166 34091 ft 362 kts 256°
2026-04-25 03:34 54.91577 82.14938 34090 ft 362 kts 256°
2026-04-25 03:35 54.89975 82.06660 34085 ft 362 kts 256°
2026-04-25 03:35 54.88337 81.98106 34079 ft 361 kts 256°
2026-04-25 03:36 54.86630 81.89078 34082 ft 362 kts 257°
2026-04-25 03:36 54.84730 81.78971 34078 ft 363 kts 256°
2026-04-25 03:37 54.83109 81.70277 34083 ft 363 kts 257°
2026-04-25 03:37 54.81472 81.61439 34082 ft 363 kts 257°
2026-04-25 03:38 54.79616 81.51271 34081 ft 363 kts 257°
2026-04-25 03:38 54.77971 81.42165 34084 ft 363 kts 257°
2026-04-25 03:39 54.76328 81.33031 34084 ft 363 kts 256°
2026-04-25 03:39 54.74764 81.24294 34082 ft 363 kts 256°
2026-04-25 03:40 54.73277 81.15880 34084 ft 364 kts 256°
2026-04-25 03:40 54.71825 81.07568 34085 ft 364 kts 257°
2026-04-25 03:41 54.70372 80.99222 34086 ft 364 kts 257°
2026-04-25 03:41 54.68933 80.90893 34087 ft 363 kts 257°
2026-04-25 03:42 54.67505 80.82553 34086 ft 363 kts 257°
2026-04-25 03:42 54.66082 80.74202 34084 ft 364 kts 257°
2026-04-25 03:43 54.64668 80.65863 34080 ft 363 kts 257°
2026-04-25 03:43 54.63260 80.57484 34075 ft 364 kts 257°
2026-04-25 03:44 54.61869 80.49126 34076 ft 363 kts 257°
2026-04-25 03:44 54.60496 80.40778 34078 ft 363 kts 257°
2026-04-25 03:45 54.59119 80.32368 34078 ft 363 kts 257°
2026-04-25 03:45 54.57740 80.23928 34075 ft 363 kts 257°
2026-04-25 03:46 54.56383 80.15592 34073 ft 364 kts 257°
2026-04-25 03:46 54.55032 80.07230 34073 ft 364 kts 257°
2026-04-25 03:47 54.53679 79.98795 34072 ft 364 kts 257°
2026-04-25 03:47 54.52351 79.90437 34076 ft 364 kts 257°
2026-04-25 03:48 54.51027 79.82071 34076 ft 364 kts 257°
2026-04-25 03:48 54.49712 79.73734 34074 ft 363 kts 257°
2026-04-25 03:49 54.48391 79.65340 34075 ft 363 kts 257°
2026-04-25 03:49 54.47078 79.56981 34071 ft 364 kts 258°
2026-04-25 03:50 54.45778 79.48615 34073 ft 365 kts 258°
2026-04-25 03:50 54.44488 79.40247 34066 ft 364 kts 258°
2026-04-25 03:51 54.43189 79.31808 34066 ft 365 kts 257°
2026-04-25 03:51 54.41900 79.23399 34063 ft 365 kts 257°
2026-04-25 03:52 54.40627 79.15047 34062 ft 365 kts 257°
2026-04-25 03:52 54.39360 79.06644 34058 ft 365 kts 257°
2026-04-25 03:53 54.38105 78.98268 34054 ft 365 kts 257°
2026-04-25 03:53 54.36858 78.89881 34050 ft 365 kts 257°
2026-04-25 03:54 54.35612 78.81439 34053 ft 365 kts 257°
2026-04-25 03:54 54.34383 78.73059 34045 ft 365 kts 258°
2026-04-25 03:55 54.33158 78.64657 34045 ft 364 kts 258°
2026-04-25 03:55 54.31946 78.56278 34042 ft 364 kts 258°
2026-04-25 03:56 54.30739 78.47890 34040 ft 364 kts 258°
2026-04-25 03:56 54.29536 78.39475 34038 ft 364 kts 258°
2026-04-25 03:57 54.28338 78.31065 34037 ft 364 kts 257°
2026-04-25 03:57 54.27144 78.22657 34034 ft 364 kts 257°
2026-04-25 03:58 54.25961 78.14266 34031 ft 364 kts 257°
2026-04-25 03:58 54.24786 78.05867 34036 ft 365 kts 258°
2026-04-25 03:59 54.23618 77.97427 34036 ft 364 kts 258°
2026-04-25 03:59 54.22472 77.89070 34033 ft 364 kts 258°
2026-04-25 04:00 54.21331 77.80684 34030 ft 364 kts 258°
2026-04-25 04:00 54.20200 77.72321 34028 ft 364 kts 258°
2026-04-25 04:01 54.19064 77.63896 34033 ft 364 kts 258°
2026-04-25 04:01 54.17936 77.55506 34031 ft 364 kts 258°
2026-04-25 04:02 54.16817 77.47102 34029 ft 363 kts 258°
2026-04-25 04:02 54.15717 77.38740 34024 ft 363 kts 258°
2026-04-25 04:03 54.14609 77.30297 34025 ft 364 kts 258°
2026-04-25 04:03 54.13472 77.21603 34023 ft 364 kts 258°
2026-04-25 04:04 54.12392 77.13211 34019 ft 364 kts 258°
2026-04-25 04:04 54.11330 77.04843 34019 ft 363 kts 258°
2026-04-25 04:05 54.10264 76.96423 34020 ft 363 kts 258°
2026-04-25 04:05 54.09211 76.88080 34015 ft 362 kts 258°
2026-04-25 04:06 54.08156 76.79722 34013 ft 362 kts 258°
2026-04-25 04:06 54.07103 76.71343 34012 ft 363 kts 258°
2026-04-25 04:07 54.06044 76.62972 34014 ft 363 kts 258°
2026-04-25 04:07 54.04984 76.54612 34007 ft 363 kts 258°
2026-04-25 04:08 54.03929 76.46249 34008 ft 363 kts 258°
2026-04-25 04:08 54.02883 76.37904 34006 ft 362 kts 258°
2026-04-25 04:09 54.01836 76.29512 34008 ft 362 kts 258°
2026-04-25 04:09 54.00802 76.21184 34003 ft 361 kts 258°
2026-04-25 04:10 53.99766 76.12862 34007 ft 362 kts 258°
2026-04-25 04:10 53.98730 76.04530 33998 ft 362 kts 258°
2026-04-25 04:11 53.97179 75.92055 34000 ft 361 kts 258°
2026-04-25 04:12 53.96152 75.83691 33991 ft 361 kts 258°
2026-04-25 04:12 53.95139 75.75373 33986 ft 361 kts 258°
2026-04-25 04:13 53.94138 75.67100 33984 ft 360 kts 258°
2026-04-25 04:13 53.93135 75.58779 33985 ft 360 kts 259°
2026-04-25 04:14 53.92145 75.50530 33984 ft 360 kts 259°
2026-04-25 04:14 53.91156 75.42243 33983 ft 359 kts 259°
2026-04-25 04:15 53.90165 75.33898 33984 ft 359 kts 258°
2026-04-25 04:15 53.89163 75.25446 33983 ft 359 kts 258°
2026-04-25 04:16 53.88182 75.17156 33981 ft 359 kts 258°
2026-04-25 04:16 53.87206 75.08870 33980 ft 359 kts 258°
2026-04-25 04:17 53.86237 75.00621 33982 ft 359 kts 258°
2026-04-25 04:17 53.85274 74.92407 33981 ft 358 kts 258°
2026-04-25 04:18 53.84317 74.84165 33979 ft 358 kts 259°
2026-04-25 04:18 53.83369 74.75960 33976 ft 357 kts 259°
2026-04-25 04:19 53.82425 74.67738 33971 ft 357 kts 259°
2026-04-25 04:19 53.81482 74.59548 33973 ft 356 kts 259°
2026-04-25 04:20 53.80544 74.51327 33967 ft 356 kts 259°
2026-04-25 04:20 53.79615 74.43107 33962 ft 355 kts 259°
2026-04-25 04:21 53.78706 74.34988 33962 ft 355 kts 258°
2026-04-25 04:21 53.77787 74.26807 33958 ft 354 kts 258°
2026-04-25 04:22 53.76873 74.18672 33953 ft 353 kts 258°
2026-04-25 04:22 53.75962 74.10550 33952 ft 352 kts 259°
2026-04-25 04:23 53.75055 74.02451 33955 ft 352 kts 259°
2026-04-25 04:23 53.74160 73.94371 33954 ft 351 kts 259°
2026-04-25 04:24 53.73270 73.86279 33951 ft 351 kts 259°
2026-04-25 04:24 53.72378 73.78233 33956 ft 350 kts 259°
2026-04-25 04:25 53.71487 73.70177 33956 ft 350 kts 259°
2026-04-25 04:25 53.70606 73.62144 33946 ft 349 kts 259°
2026-04-25 04:26 53.69727 73.54107 33944 ft 349 kts 259°
2026-04-25 04:26 53.68852 73.46105 33951 ft 349 kts 259°
2026-04-25 04:27 53.67976 73.38049 33945 ft 349 kts 259°
2026-04-25 04:27 53.67101 73.30003 33947 ft 348 kts 259°
2026-04-25 04:28 53.66232 73.22015 33939 ft 348 kts 259°
2026-04-25 04:28 53.65377 73.14073 33936 ft 347 kts 259°
2026-04-25 04:29 53.64516 73.06042 33935 ft 347 kts 259°
2026-04-25 04:29 53.63672 72.98093 33932 ft 347 kts 259°
2026-04-25 04:30 53.62828 72.90147 33932 ft 347 kts 259°
2026-04-25 04:30 53.61984 72.82202 33933 ft 346 kts 259°
2026-04-25 04:31 53.61142 72.74230 33931 ft 346 kts 259°
2026-04-25 04:31 53.60310 72.66302 33928 ft 345 kts 259°
2026-04-25 04:32 53.59483 72.58370 33927 ft 345 kts 259°
2026-04-25 04:32 53.58672 72.50459 33917 ft 344 kts 259°
2026-04-25 04:33 53.57865 72.42510 33915 ft 344 kts 259°
2026-04-25 04:33 53.57066 72.34617 33921 ft 344 kts 259°
2026-04-25 04:34 53.56273 72.26684 33912 ft 343 kts 259°
2026-04-25 04:34 53.55497 72.18839 33910 ft 342 kts 259°
2026-04-25 04:35 53.54726 72.10976 33906 ft 342 kts 259°
2026-04-25 04:35 53.53957 72.03115 33904 ft 341 kts 259°
2026-04-25 04:36 53.53200 71.95270 33902 ft 341 kts 259°
2026-04-25 04:36 53.52435 71.87418 33907 ft 340 kts 259°
2026-04-25 04:37 53.51686 71.79612 33910 ft 340 kts 259°
2026-04-25 04:37 53.50952 71.71805 33908 ft 340 kts 259°
2026-04-25 04:38 53.50227 71.63993 33912 ft 340 kts 259°
2026-04-25 04:38 53.49515 71.56207 33911 ft 340 kts 259°
2026-04-25 04:39 53.48806 71.48325 33909 ft 340 kts 259°
2026-04-25 04:39 53.48111 71.40511 33908 ft 339 kts 259°
2026-04-25 04:40 53.47422 71.32686 33903 ft 339 kts 259°
2026-04-25 04:40 53.46730 71.24876 33896 ft 338 kts 259°
2026-04-25 04:41 53.46051 71.17132 33896 ft 338 kts 259°
2026-04-25 04:41 53.45378 71.09358 33895 ft 338 kts 259°
2026-04-25 04:42 53.44711 71.01603 33897 ft 337 kts 259°
2026-04-25 04:42 53.44042 70.93803 33892 ft 337 kts 259°
2026-04-25 04:43 53.43389 70.86040 33886 ft 337 kts 259°
2026-04-25 04:43 53.42746 70.78347 33887 ft 336 kts 259°
2026-04-25 04:44 53.42106 70.70599 33886 ft 336 kts 259°
2026-04-25 04:44 53.41471 70.62845 33893 ft 336 kts 260°
2026-04-25 04:45 53.40851 70.55123 33888 ft 337 kts 260°
2026-04-25 04:45 53.40229 70.47360 33889 ft 337 kts 260°
2026-04-25 04:46 53.39608 70.39598 33895 ft 337 kts 260°
2026-04-25 04:46 53.38992 70.31866 33894 ft 337 kts 259°
2026-04-25 04:47 53.38365 70.24066 33891 ft 337 kts 259°
2026-04-25 04:47 53.37755 70.16320 33887 ft 336 kts 259°
2026-04-25 04:48 53.37156 70.08572 33887 ft 337 kts 259°
2026-04-25 04:48 53.36568 70.00832 33889 ft 337 kts 259°
2026-04-25 04:49 53.35973 69.92889 33884 ft 336 kts 260°
2026-04-25 04:49 53.35392 69.85136 33881 ft 336 kts 260°
2026-04-25 04:50 53.34816 69.77445 33880 ft 336 kts 260°
2026-04-25 04:50 53.34243 69.69704 33883 ft 336 kts 260°
2026-04-25 04:51 53.33678 69.61960 33872 ft 336 kts 260°
2026-04-25 04:51 53.33113 69.54086 33871 ft 336 kts 260°
2026-04-25 04:52 53.32566 69.46353 33873 ft 336 kts 260°
2026-04-25 04:52 53.32041 69.38614 33873 ft 335 kts 260°
2026-04-25 04:53 53.31459 69.30012 33871 ft 335 kts 259°
2026-04-25 04:53 53.30942 69.22317 33869 ft 334 kts 259°
2026-04-25 04:54 53.30436 69.14574 33872 ft 334 kts 259°
2026-04-25 04:54 53.29939 69.06879 33865 ft 334 kts 259°
2026-04-25 04:55 53.29454 68.99221 33869 ft 335 kts 259°
2026-04-25 04:55 53.28970 68.91479 33865 ft 335 kts 260°
2026-04-25 04:56 53.28493 68.83793 33865 ft 335 kts 260°
2026-04-25 04:56 53.28022 68.76107 33862 ft 335 kts 260°
2026-04-25 04:57 53.27556 68.68375 33851 ft 335 kts 260°
2026-04-25 04:57 53.27100 68.60652 33859 ft 334 kts 260°
2026-04-25 04:58 53.26658 68.53001 33861 ft 334 kts 260°
2026-04-25 04:58 53.26217 68.45299 33860 ft 334 kts 260°
2026-04-25 04:59 53.25787 68.37614 33849 ft 333 kts 260°
2026-04-25 04:59 53.25373 68.29933 33842 ft 333 kts 259°
2026-04-25 05:00 53.24956 68.22292 33850 ft 333 kts 259°
2026-04-25 05:00 53.24540 68.14608 33846 ft 333 kts 260°
2026-04-25 05:01 53.24122 68.06938 33844 ft 333 kts 260°
2026-04-25 05:01 53.23713 67.99263 33840 ft 333 kts 260°
2026-04-25 05:02 53.23314 67.91560 33839 ft 333 kts 260°
2026-04-25 05:02 53.22902 67.83451 33835 ft 333 kts 260°
2026-04-25 05:03 53.22520 67.75744 33836 ft 333 kts 260°
2026-04-25 05:03 53.22148 67.68099 33837 ft 332 kts 260°
2026-04-25 05:04 53.21782 67.60455 33841 ft 331 kts 260°
2026-04-25 05:04 53.21427 67.52827 33838 ft 331 kts 260°
2026-04-25 05:05 53.21089 67.45195 33834 ft 331 kts 260°
2026-04-25 05:05 53.20743 67.37386 33836 ft 331 kts 260°
2026-04-25 05:06 53.20402 67.29726 33838 ft 331 kts 260°
2026-04-25 05:06 53.20062 67.22047 33844 ft 331 kts 259°
2026-04-25 05:07 53.19730 67.14409 33835 ft 331 kts 260°
2026-04-25 05:07 53.19403 67.06797 33839 ft 331 kts 260°
2026-04-25 05:08 53.19075 66.99167 33836 ft 331 kts 260°
2026-04-25 05:08 53.18759 66.91560 33833 ft 330 kts 260°
2026-04-25 05:09 53.18457 66.83989 33827 ft 330 kts 260°
2026-04-25 05:09 53.18152 66.76356 33814 ft 329 kts 260°
2026-04-25 05:10 53.17857 66.68768 33823 ft 329 kts 260°
2026-04-25 05:10 53.17578 66.61201 33821 ft 329 kts 260°
2026-04-25 05:11 53.17306 66.53615 33813 ft 328 kts 260°
2026-04-25 05:11 53.17042 66.46024 33822 ft 329 kts 260°
2026-04-25 05:12 53.16782 66.38281 33827 ft 343 kts 260°
2026-04-25 05:12 53.16644 66.34329 33826 ft 347 kts 259°
2026-04-25 05:12 53.16304 66.26276 33814 ft 343 kts 252°
2026-04-25 05:13 53.15492 66.22582 33816 ft 334 kts 235°
2026-04-25 05:13 53.14005 66.19729 33816 ft 332 kts 218°
2026-04-25 05:13 53.11968 66.17907 33818 ft 336 kts 200°
2026-04-25 05:13 53.09634 66.17389 33819 ft 348 kts 182°
2026-04-25 05:14 53.07231 66.18248 33828 ft 365 kts 165°
2026-04-25 05:14 53.05019 66.20448 33825 ft 383 kts 147°
2026-04-25 05:14 53.03193 66.23774 33834 ft 397 kts 136°
2026-04-25 05:15 53.00440 66.31930 33830 ft 417 kts 117°
2026-04-25 05:15 52.99366 66.41476 33833 ft 436 kts 96°
2026-04-25 05:15 52.99597 66.46514 33839 ft 443 kts 84°
2026-04-25 05:16 53.00384 66.51524 33831 ft 450 kts 73°
2026-04-25 05:16 53.01687 66.56187 33827 ft 454 kts 61°
2026-04-25 05:16 53.03519 66.60493 33832 ft 456 kts 49°
2026-04-25 05:16 53.05777 66.64144 33835 ft 456 kts 37°
2026-04-25 05:17 53.08442 66.67100 33838 ft 454 kts 26°
2026-04-25 05:17 53.13511 66.73231 33835 ft 455 kts 53°
2026-04-25 05:17 53.15134 66.77736 33847 ft 450 kts 68°
2026-04-25 05:18 53.16402 66.82478 33836 ft 448 kts 74°
2026-04-25 05:18 53.17265 66.87464 33828 ft 441 kts 85°
2026-04-25 05:18 53.17545 66.92485 33831 ft 433 kts 97°
2026-04-25 05:19 53.18194 67.02595 33828 ft 448 kts 78°
2026-04-25 05:19 53.19298 67.07516 33846 ft 463 kts 69°
2026-04-25 05:19 53.20669 67.12461 33840 ft 475 kts 67°
2026-04-25 05:19 53.22128 67.17545 33837 ft 486 kts 67°
2026-04-25 05:20 53.23598 67.22655 33839 ft 496 kts 67°
2026-04-25 05:20 53.25101 67.27900 33834 ft 507 kts 67°
2026-04-25 05:20 53.26625 67.33246 33838 ft 517 kts 67°
2026-04-25 05:20 53.28197 67.38779 33832 ft 528 kts 66°
2026-04-25 05:21 53.29802 67.44440 33832 ft 537 kts 67°
2026-04-25 05:21 53.31929 67.56195 33837 ft 531 kts 89°
2026-04-25 05:22 53.31362 67.68213 33840 ft 515 kts 111°
2026-04-25 05:22 53.28530 67.78899 33840 ft 496 kts 130°
2026-04-25 05:23 53.23992 67.87225 33845 ft 478 kts 148°
2026-04-25 05:23 53.18374 67.92640 33849 ft 462 kts 165°
2026-04-25 05:24 53.12202 67.94984 33849 ft 450 kts 181°
2026-04-25 05:24 53.06074 67.94284 33857 ft 441 kts 196°
2026-04-25 05:25 53.00383 67.90778 33861 ft 434 kts 211°
2026-04-25 05:25 52.95554 67.84839 33859 ft 431 kts 225°
2026-04-25 05:26 52.91925 67.76986 33855 ft 433 kts 239°
2026-04-25 05:26 52.89725 67.67680 33854 ft 438 kts 253°
2026-04-25 05:27 52.89182 67.57410 33855 ft 447 kts 269°
2026-04-25 05:27 52.90486 67.47073 33852 ft 461 kts 285°
2026-04-25 05:28 52.93623 67.37676 33850 ft 477 kts 302°
2026-04-25 05:28 52.98517 67.29994 33846 ft 496 kts 319°
2026-04-25 05:29 53.04824 67.25082 33851 ft 515 kts 338°
2026-04-25 05:29 53.08358 67.23945 33849 ft 522 kts 349°
2026-04-25 05:29 53.11974 67.23807 33842 ft 530 kts 359°
2026-04-25 05:29 53.15636 67.24718 33844 ft 538 kts 10°
2026-04-25 05:30 53.19209 67.26711 33841 ft 543 kts 21°
2026-04-25 05:30 53.22626 67.29841 33841 ft 546 kts 33°
2026-04-25 05:30 53.25589 67.33865 33846 ft 547 kts 44°
2026-04-25 05:30 53.28043 67.38639 33842 ft 546 kts 56°
2026-04-25 05:31 53.29958 67.44080 33839 ft 543 kts 67°
2026-04-25 05:31 53.31267 67.49989 33826 ft 537 kts 78°
2026-04-25 05:31 53.31927 67.56066 33841 ft 530 kts 89°
2026-04-25 05:32 53.31360 67.68155 33834 ft 514 kts 110°
2026-04-25 05:32 53.30211 67.73722 33831 ft 505 kts 121°
2026-04-25 05:32 53.28572 67.78794 33829 ft 496 kts 130°
2026-04-25 05:33 53.24057 67.87151 33833 ft 478 kts 148°
2026-04-25 05:33 53.18437 67.92604 33839 ft 463 kts 165°
2026-04-25 05:34 53.12306 67.95029 33841 ft 452 kts 177°
2026-04-25 05:34 53.06245 67.98346 33845 ft 471 kts 156°
2026-04-25 05:34 53.03554 68.01570 33852 ft 482 kts 144°
2026-04-25 05:35 53.01237 68.05738 33865 ft 494 kts 133°
2026-04-25 05:35 52.99441 68.10584 33844 ft 501 kts 122°
2026-04-25 05:35 52.98213 68.15962 33668 ft 500 kts 110°
2026-04-25 05:35 52.97635 68.21608 33457 ft 497 kts 98°
2026-04-25 05:36 52.97728 68.27329 33179 ft 491 kts 86°
2026-04-25 05:36 52.98466 68.32717 32737 ft 480 kts 73°
2026-04-25 05:36 52.99727 68.37820 32149 ft 474 kts 67°
2026-04-25 05:36 53.01130 68.42706 31985 ft 464 kts 65°
2026-04-25 05:37 53.02538 68.47466 31612 ft 449 kts 65°
2026-04-25 05:37 53.03878 68.51998 31295 ft 431 kts 69°
2026-04-25 05:37 53.04716 68.56576 30978 ft 407 kts 89°
2026-04-25 05:37 53.04645 68.61108 30716 ft 379 kts 109°
2026-04-25 05:38 53.03786 68.65057 30439 ft 355 kts 122°
2026-04-25 05:38 53.02834 68.68780 30156 ft 343 kts 118°
2026-04-25 05:38 53.01988 68.72423 29868 ft 330 kts 118°
2026-04-25 05:38 53.01193 68.75939 29340 ft 326 kts 117°
2026-04-25 05:39 53.00403 68.79443 28694 ft 325 kts 118°
2026-04-25 05:39 52.99615 68.82928 28082 ft 323 kts 117°
2026-04-25 05:39 52.98836 68.86365 27513 ft 320 kts 117°
2026-04-25 05:39 52.98059 68.89782 26949 ft 316 kts 117°
2026-04-25 05:40 52.97283 68.93184 26381 ft 313 kts 118°
2026-04-25 05:40 52.96518 68.96532 25823 ft 310 kts 117°
2026-04-25 05:40 52.95763 68.99804 25278 ft 307 kts 117°
2026-04-25 05:40 52.95015 69.03063 24693 ft 305 kts 114°
2026-04-25 05:41 52.94487 69.06499 24077 ft 311 kts 95°
2026-04-25 05:41 52.94746 69.10065 23487 ft 316 kts 74°
2026-04-25 05:41 52.95401 69.13600 22950 ft 311 kts 77°
2026-04-25 05:41 52.95967 69.16981 22442 ft 305 kts 78°
2026-04-25 05:42 52.96523 69.20392 21628 ft 313 kts 78°
2026-04-25 05:42 52.97203 69.23884 20784 ft 328 kts 66°
2026-04-25 05:42 52.98602 69.26928 19936 ft 343 kts 40°
2026-04-25 05:42 53.00504 69.29346 19484 ft 342 kts 34°
2026-04-25 05:43 53.02456 69.31562 19025 ft 343 kts 32°
2026-04-25 05:43 53.04421 69.33746 18831 ft 334 kts 32°
2026-04-25 05:43 53.06325 69.35858 18659 ft 326 kts 32°
2026-04-25 05:43 53.08254 69.38001 18469 ft 318 kts 32°
2026-04-25 05:44 53.10104 69.40067 18175 ft 314 kts 32°
2026-04-25 05:44 53.11900 69.42016 17816 ft 303 kts 29°
2026-04-25 05:44 53.13797 69.43810 17518 ft 287 kts 26°
2026-04-25 05:44 53.15522 69.45329 17209 ft 275 kts 26°
2026-04-25 05:45 53.17181 69.46855 16741 ft 272 kts 27°
2026-04-25 05:45 53.18837 69.48423 16021 ft 279 kts 27°
2026-04-25 05:45 53.20602 69.49935 15245 ft 282 kts 13°
2026-04-25 05:45 53.22532 69.50205 14469 ft 273 kts 342°
2026-04-25 05:46 53.24194 69.49000 13805 ft 253 kts 312°
2026-04-25 05:46 53.25183 69.46798 13192 ft 232 kts 282°
2026-04-25 05:46 53.25366 69.44250 12593 ft 218 kts 261°
2026-04-25 05:46 53.24821 69.41825 11937 ft 209 kts 229°
2026-04-25 05:47 53.23599 69.40576 11384 ft 210 kts 197°
2026-04-25 05:47 53.22156 69.40797 10948 ft 216 kts 165°
2026-04-25 05:47 53.20991 69.42430 10403 ft 228 kts 130°
2026-04-25 05:47 53.20536 69.45030 9852 ft 239 kts 94°
2026-04-25 05:48 53.20988 69.47701 9312 ft 246 kts 58°
2026-04-25 05:48 53.22150 69.49753 8788 ft 244 kts 41°
2026-04-25 05:48 53.23314 69.51751 8252 ft 242 kts 48°
2026-04-25 05:48 53.24454 69.53896 7696 ft 240 kts 49°
2026-04-25 05:49 53.25538 69.55966 7158 ft 238 kts 49°
2026-04-25 05:49 53.26612 69.58013 6625 ft 236 kts 49°
2026-04-25 05:49 53.27696 69.60078 6085 ft 234 kts 49°
2026-04-25 05:49 53.28751 69.62083 5557 ft 232 kts 49°
2026-04-25 05:50 53.29809 69.64091 5074 ft 227 kts 49°
2026-04-25 05:50 53.30827 69.66011 4868 ft 207 kts 50°
2026-04-25 05:50 53.31798 69.67712 4861 ft 204 kts 38°
2026-04-25 05:50 53.32947 69.69109 4877 ft 203 kts 33°
2026-04-25 05:51 53.34128 69.70418 4892 ft 203 kts 32°
2026-04-25 05:51 53.35303 69.71697 4888 ft 203 kts 32°
2026-04-25 05:51 53.36473 69.72964 4837 ft 198 kts 32°
2026-04-25 05:51 53.37622 69.74213 4460 ft 196 kts 32°
2026-04-25 05:52 53.38755 69.75444 3998 ft 197 kts 32°
2026-04-25 05:52 53.39913 69.76644 3559 ft 195 kts 22°
2026-04-25 05:52 53.41198 69.76862 3098 ft 181 kts 334°
2026-04-25 05:52 53.42100 69.75674 2874 ft 160 kts 286°
2026-04-25 05:53 53.42159 69.73947 2882 ft 149 kts 242°
2026-04-25 05:53 53.41506 69.72666 2893 ft 147 kts 224°
2026-04-25 05:53 53.40899 69.71286 2877 ft 148 kts 238°
2026-04-25 05:53 53.40367 69.69807 2735 ft 148 kts 235°
2026-04-25 05:54 53.39797 69.68384 2574 ft 147 kts 236°
2026-04-25 05:54 53.39254 69.66952 2444 ft 141 kts 236°
2026-04-25 05:54 53.37865 69.64750 1883 ft 137 kts 215°
2026-04-25 05:55 53.37068 69.63903 1669 ft 135 kts 218°
2026-04-25 05:55 53.36302 69.62991 1414 ft 135 kts 219°
2026-04-25 05:55 53.35500 69.62136 1278 ft 137 kts 216°
2026-04-25 05:55 53.34700 69.61308 1079 ft 137 kts 216°
2026-04-25 05:56 53.33892 69.60472 878 ft 130 kts 215°
2026-04-25 05:56 53.33338 69.59897 875 ft 45 kts 212°
2026-04-25 05:56 53.33134 69.59654 874 ft 24 kts 246°
2026-04-25 05:56 53.33150 69.59531 874 ft 10 kts 307°
2026-04-25 05:57 53.33196 69.59414 874 ft 13 kts 301°
2026-04-25 05:57 53.33248 69.59280 875 ft 11 kts 312°
2026-04-25 05:57 53.33300 69.59164 877 ft 12 kts 302°
2026-04-25 05:57 53.33307 69.59145 877 ft 0 kts 302°